Wetterdaten: Samstag, 15.08.2015
Datum Zeit Temp. Aussen +5cm Feuchte Auss BlattFeu 1 Luftdruck Regen Sonnenschein Regendauer Solar Windben
15.08.2015 00:00 19,6 C 17,2 C 89 % 2 lf 1005,9 hPa 0,0 l/m 0 min 0 min 0 W/m 4,2 km/h (1 Bft)
15.08.2015 00:02 19,6 C 17,2 C 89 % 2 lf 1005,9 hPa 0,0 l/m 0 min 0 min 0 W/m 0,0 km/h (0 Bft)
15.08.2015 00:05 19,6 C 17,2 C 89 % 1 lf 1005,9 hPa 0,0 l/m 0 min 0 min 0 W/m 2,1 km/h (1 Bft)
15.08.2015 00:06 19,6 C 17,2 C 89 % 1 lf 1006,0 hPa 0,0 l/m 0 min 0 min 0 W/m 2,1 km/h (1 Bft)
15.08.2015 00:08 19,5 C 17,2 C 89 % 1 lf 1005,9 hPa 0,0 l/m 0 min 0 min 0 W/m 2,1 km/h (1 Bft)
15.08.2015 00:10 19,5 C 17,2 C 89 % 1 lf 1006,0 hPa 0,0 l/m 0 min 0 min 0 W/m 2,1 km/h (1 Bft)
15.08.2015 00:12 19,4 C 17,2 C 89 % 1 lf 1006,0 hPa 0,0 l/m 0 min 0 min 0 W/m 2,1 km/h (1 Bft)
15.08.2015 00:14 19,4 C 17,2 C 89 % 1 lf 1006,0 hPa 0,0 l/m 0 min 0 min 0 W/m 2,1 km/h (1 Bft)
15.08.2015 00:16 19,4 C 17,2 C 89 % 1 lf 1006,0 hPa 0,0 l/m 0 min 0 min 0 W/m 2,1 km/h (1 Bft)
15.08.2015 00:18 19,4 C 17,2 C 89 % 1 lf 1006,0 hPa 0,0 l/m 0 min 0 min 0 W/m 4,2 km/h (1 Bft)
15.08.2015 00:20 19,4 C 17,2 C 89 % 1 lf 1006,1 hPa 0,0 l/m 0 min 0 min 0 W/m 2,1 km/h (1 Bft)
15.08.2015 00:22 19,3 C 17,2 C 89 % 1 lf 1006,0 hPa 0,0 l/m 0 min 0 min 0 W/m 0,0 km/h (0 Bft)
15.08.2015 00:24 19,3 C 17,2 C 89 % 2 lf 1006,0 hPa 0,0 l/m 0 min 0 min 0 W/m 0,0 km/h (0 Bft)
15.08.2015 00:26 19,3 C 17,2 C 89 % 2 lf 1006,0 hPa 0,0 l/m 0 min 0 min 0 W/m 2,1 km/h (1 Bft)
15.08.2015 00:28 19,2 C 17,2 C 89 % 1 lf 1006,0 hPa 0,0 l/m 0 min 0 min 0 W/m 2,1 km/h (1 Bft)
15.08.2015 00:30 19,2 C 17,2 C 89 % 2 lf 1005,9 hPa 0,0 l/m 0 min 0 min 0 W/m 2,1 km/h (1 Bft)
15.08.2015 00:32 19,2 C 17,2 C 89 % 1 lf 1006,1 hPa 0,0 l/m 0 min 0 min 0 W/m 6,3 km/h (2 Bft)
15.08.2015 00:34 19,2 C 17,2 C 90 % 1 lf 1006,1 hPa 0,0 l/m 0 min 0 min 0 W/m 33,5 km/h (5 Bft)
15.08.2015 00:36 19,2 C 17,8 C 90 % 0 lf 1006,2 hPa 0,0 l/m 0 min 0 min 0 W/m 23,0 km/h (4 Bft)
15.08.2015 00:38 19,2 C 18,3 C 90 % 0 lf 1006,2 hPa 0,0 l/m 0 min 0 min 0 W/m 16,7 km/h (3 Bft)
15.08.2015 00:40 19,2 C 18,3 C 89 % 0 lf 1006,2 hPa 0,0 l/m 0 min 0 min 0 W/m 18,8 km/h (3 Bft)
15.08.2015 00:42 19,2 C 18,9 C 89 % 0 lf 1006,2 hPa 0,0 l/m 0 min 0 min 0 W/m 20,9 km/h (4 Bft)
15.08.2015 00:44 19,2 C 18,9 C 89 % 0 lf 1006,2 hPa 0,0 l/m 0 min 0 min 0 W/m 25,1 km/h (4 Bft)
15.08.2015 00:46 19,2 C 18,9 C 88 % 0 lf 1006,1 hPa 0,0 l/m 0 min 0 min 0 W/m 14,6 km/h (3 Bft)
15.08.2015 00:48 19,3 C 18,9 C 88 % 0 lf 1006,1 hPa 0,0 l/m 0 min 0 min 0 W/m 23,0 km/h (4 Bft)
15.08.2015 00:50 19,3 C 18,9 C 87 % 0 lf 1005,9 hPa 0,0 l/m 0 min 0 min 0 W/m 18,8 km/h (3 Bft)
15.08.2015 00:52 19,4 C 18,9 C 87 % 0 lf 1005,9 hPa 0,0 l/m 0 min 0 min 0 W/m 14,6 km/h (3 Bft)
15.08.2015 00:54 19,4 C 18,9 C 87 % 0 lf 1005,9 hPa 0,0 l/m 0 min 0 min 0 W/m 16,7 km/h (3 Bft)
15.08.2015 00:56 19,5 C 18,9 C 87 % 0 lf 1005,8 hPa 0,0 l/m 0 min 0 min 0 W/m 14,6 km/h (3 Bft)
15.08.2015 00:58 19,6 C 18,3 C 86 % 0 lf 1005,8 hPa 0,0 l/m 0 min 0 min 0 W/m 16,7 km/h (3 Bft)
15.08.2015 01:00 19,6 C 18,3 C 86 % 0 lf 1005,8 hPa 0,0 l/m 0 min 0 min 0 W/m 10,5 km/h (2 Bft)
15.08.2015 01:02 19,7 C 18,3 C 86 % 0 lf 1005,8 hPa 0,0 l/m 0 min 0 min 0 W/m 10,5 km/h (2 Bft)
15.08.2015 01:04 19,7 C 18,3 C 86 % 0 lf 1005,7 hPa 0,0 l/m 0 min 0 min 0 W/m 10,5 km/h (2 Bft)
15.08.2015 01:06 19,7 C 18,3 C 86 % 0 lf 1005,7 hPa 0,0 l/m 0 min 0 min 0 W/m 10,5 km/h (2 Bft)
15.08.2015 01:08 19,7 C 18,3 C 86 % 0 lf 1005,7 hPa 0,0 l/m 0 min 0 min 0 W/m 10,5 km/h (2 Bft)
15.08.2015 01:10 19,7 C 18,3 C 86 % 0 lf 1005,7 hPa 0,0 l/m 0 min 0 min 0 W/m 10,5 km/h (2 Bft)
15.08.2015 01:12 19,7 C 18,3 C 86 % 0 lf 1005,7 hPa 0,0 l/m 0 min 0 min 0 W/m 6,3 km/h (2 Bft)
15.08.2015 01:14 19,7 C 17,8 C 86 % 0 lf 1005,7 hPa 0,0 l/m 0 min 0 min 0 W/m 4,2 km/h (1 Bft)
15.08.2015 01:16 19,7 C 17,8 C 86 % 0 lf 1005,7 hPa 0,0 l/m 0 min 0 min 0 W/m 2,1 km/h (1 Bft)
15.08.2015 01:18 19,7 C 17,8 C 86 % 0 lf 1005,7 hPa 0,0 l/m 0 min 0 min 0 W/m 2,1 km/h (1 Bft)
15.08.2015 01:20 19,7 C 17,8 C 85 % 0 lf 1005,7 hPa 0,0 l/m 0 min 0 min 0 W/m 2,1 km/h (1 Bft)
15.08.2015 01:22 19,8 C 17,8 C 85 % 0 lf 1005,7 hPa 0,0 l/m 0 min 0 min 0 W/m 4,2 km/h (1 Bft)
15.08.2015 01:24 19,7 C 17,8 C 85 % 0 lf 1005,7 hPa 0,0 l/m 0 min 0 min 0 W/m 4,2 km/h (1 Bft)
15.08.2015 01:26 19,7 C 17,8 C 85 % 0 lf 1005,7 hPa 0,0 l/m 0 min 0 min 0 W/m 6,3 km/h (2 Bft)
15.08.2015 01:28 19,7 C 17,8 C 85 % 0 lf 1005,7 hPa 0,0 l/m 0 min 0 min 0 W/m 6,3 km/h (2 Bft)
15.08.2015 01:30 19,7 C 17,8 C 85 % 0 lf 1005,6 hPa 0,0 l/m 0 min 0 min 0 W/m 6,3 km/h (2 Bft)
15.08.2015 01:32 19,7 C 17,8 C 85 % 0 lf 1005,6 hPa 0,0 l/m 0 min 0 min 0 W/m 6,3 km/h (2 Bft)
15.08.2015 01:34 19,7 C 17,8 C 85 % 0 lf 1005,7 hPa 0,0 l/m 0 min 0 min 0 W/m 6,3 km/h (2 Bft)
15.08.2015 01:36 19,7 C 17,8 C 85 % 0 lf 1005,7 hPa 0,0 l/m 0 min 0 min 0 W/m 10,5 km/h (2 Bft)
15.08.2015 01:38 19,7 C 17,8 C 85 % 0 lf 1005,7 hPa 0,0 l/m 0 min 0 min 0 W/m 10,5 km/h (2 Bft)
15.08.2015 01:40 19,7 C 17,8 C 85 % 0 lf 1005,7 hPa 0,0 l/m 0 min 0 min 0 W/m 12,6 km/h (3 Bft)
15.08.2015 01:42 19,7 C 18,3 C 85 % 0 lf 1005,6 hPa 0,0 l/m 0 min 0 min 0 W/m 12,6 km/h (3 Bft)
15.08.2015 01:44 19,6 C 18,3 C 85 % 0 lf 1005,6 hPa 0,0 l/m 0 min 0 min 0 W/m 12,6 km/h (3 Bft)
15.08.2015 01:46 19,6 C 18,3 C 85 % 0 lf 1005,6 hPa 0,0 l/m 0 min 0 min 0 W/m 8,4 km/h (2 Bft)
15.08.2015 01:48 19,6 C 18,3 C 85 % 0 lf 1005,5 hPa 0,0 l/m 0 min 0 min 0 W/m 10,5 km/h (2 Bft)
15.08.2015 01:50 19,6 C 18,3 C 85 % 0 lf 1005,6 hPa 0,0 l/m 0 min 0 min 0 W/m 6,3 km/h (2 Bft)
15.08.2015 01:52 19,6 C 18,3 C 85 % 0 lf 1005,5 hPa 0,0 l/m 0 min 0 min 0 W/m 4,2 km/h (1 Bft)
15.08.2015 01:54 19,6 C 17,8 C 85 % 0 lf 1005,5 hPa 0,0 l/m 0 min 0 min 0 W/m 4,2 km/h (1 Bft)
15.08.2015 01:56 19,6 C 17,8 C 85 % 0 lf 1005,6 hPa 0,0 l/m 0 min 0 min 0 W/m 4,2 km/h (1 Bft)
15.08.2015 01:58 19,6 C 17,8 C 85 % 0 lf 1005,5 hPa 0,0 l/m 0 min 0 min 0 W/m 6,3 km/h (2 Bft)
15.08.2015 02:00 19,6 C 17,8 C 85 % 0 lf 1005,6 hPa 0,0 l/m 0 min 0 min 0 W/m 8,4 km/h (2 Bft)
15.08.2015 02:02 19,5 C 18,3 C 85 % 0 lf 1005,7 hPa 0,0 l/m 0 min 0 min 0 W/m 4,2 km/h (1 Bft)
15.08.2015 02:04 19,5 C 17,8 C 85 % 0 lf 1005,7 hPa 0,0 l/m 0 min 0 min 0 W/m 2,1 km/h (1 Bft)
15.08.2015 02:06 19,5 C 17,8 C 85 % 0 lf 1005,7 hPa 0,0 l/m 0 min 0 min 0 W/m 4,2 km/h (1 Bft)
15.08.2015 02:08 19,5 C 17,8 C 85 % 0 lf 1005,7 hPa 0,0 l/m 0 min 0 min 0 W/m 4,2 km/h (1 Bft)
15.08.2015 02:10 19,5 C 17,8 C 85 % 0 lf 1005,8 hPa 0,0 l/m 0 min 0 min 0 W/m 6,3 km/h (2 Bft)
15.08.2015 02:12 19,5 C 17,8 C 85 % 0 lf 1005,8 hPa 0,0 l/m 0 min 0 min 0 W/m 2,1 km/h (1 Bft)
15.08.2015 02:14 19,5 C 17,8 C 85 % 0 lf 1005,8 hPa 0,0 l/m 0 min 0 min 0 W/m 2,1 km/h (1 Bft)
15.08.2015 02:16 19,5 C 17,8 C 85 % 0 lf 1005,8 hPa 0,0 l/m 0 min 0 min 0 W/m 4,2 km/h (1 Bft)
15.08.2015 02:18 19,5 C 17,8 C 85 % 0 lf 1005,9 hPa 0,0 l/m 0 min 0 min 0 W/m 6,3 km/h (2 Bft)
15.08.2015 02:20 19,5 C 17,8 C 85 % 0 lf 1005,9 hPa 0,0 l/m 0 min 0 min 0 W/m 8,4 km/h (2 Bft)
15.08.2015 02:22 19,5 C 17,8 C 85 % 0 lf 1005,8 hPa 0,0 l/m 0 min 0 min 0 W/m 2,1 km/h (1 Bft)
15.08.2015 02:24 19,5 C 18,3 C 85 % 0 lf 1005,8 hPa 0,0 l/m 0 min 0 min 0 W/m 2,1 km/h (1 Bft)
15.08.2015 02:26 19,5 C 18,3 C 85 % 0 lf 1005,7 hPa 0,0 l/m 0 min 0 min 0 W/m 2,1 km/h (1 Bft)
15.08.2015 02:28 19,4 C 18,3 C 85 % 0 lf 1005,7 hPa 0,0 l/m 0 min 0 min 0 W/m 4,2 km/h (1 Bft)
15.08.2015 02:30 19,4 C 18,3 C 85 % 0 lf 1005,8 hPa 0,0 l/m 0 min 0 min 0 W/m 4,2 km/h (1 Bft)
15.08.2015 02:32 19,4 C 17,8 C 85 % 0 lf 1005,8 hPa 0,0 l/m 0 min 0 min 0 W/m 6,3 km/h (2 Bft)
15.08.2015 02:34 19,4 C 17,8 C 85 % 0 lf 1005,8 hPa 0,0 l/m 0 min 0 min 0 W/m 8,4 km/h (2 Bft)
15.08.2015 02:36 19,4 C 17,8 C 85 % 0 lf 1005,8 hPa 0,0 l/m 0 min 0 min 0 W/m 6,3 km/h (2 Bft)
15.08.2015 02:38 19,4 C 17,8 C 85 % 0 lf 1005,8 hPa 0,0 l/m 0 min 0 min 0 W/m 4,2 km/h (1 Bft)
15.08.2015 02:40 19,4 C 17,8 C 85 % 0 lf 1005,7 hPa 0,0 l/m 0 min 0 min 0 W/m 4,2 km/h (1 Bft)
15.08.2015 02:42 19,4 C 17,8 C 85 % 0 lf 1005,7 hPa 0,0 l/m 0 min 0 min 0 W/m 6,3 km/h (2 Bft)
15.08.2015 02:44 19,4 C 17,8 C 85 % 0 lf 1005,7 hPa 0,0 l/m 0 min 0 min 0 W/m 8,4 km/h (2 Bft)
15.08.2015 02:46 19,4 C 17,8 C 85 % 0 lf 1005,8 hPa 0,0 l/m 0 min 0 min 0 W/m 6,3 km/h (2 Bft)
15.08.2015 02:48 19,4 C 17,8 C 85 % 0 lf 1005,8 hPa 0,0 l/m 0 min 0 min 0 W/m 4,2 km/h (1 Bft)
15.08.2015 02:50 19,4 C 17,8 C 85 % 0 lf 1005,8 hPa 0,0 l/m 0 min 0 min 0 W/m 4,2 km/h (1 Bft)
15.08.2015 02:52 19,4 C 17,8 C 85 % 0 lf 1005,8 hPa 0,0 l/m 0 min 0 min 0 W/m 4,2 km/h (1 Bft)
15.08.2015 02:54 19,4 C 17,8 C 85 % 0 lf 1005,7 hPa 0,0 l/m 0 min 0 min 0 W/m 6,3 km/h (2 Bft)
15.08.2015 02:56 19,4 C 17,8 C 85 % 0 lf 1005,7 hPa 0,0 l/m 0 min 0 min 0 W/m 6,3 km/h (2 Bft)
15.08.2015 02:58 19,4 C 17,2 C 85 % 0 lf 1005,7 hPa 0,0 l/m 0 min 0 min 0 W/m 6,3 km/h (2 Bft)
15.08.2015 03:00 19,4 C 17,2 C 85 % 0 lf 1005,7 hPa 0,0 l/m 0 min 0 min 0 W/m 6,3 km/h (2 Bft)
15.08.2015 03:02 19,4 C 17,2 C 85 % 0 lf 1005,7 hPa 0,0 l/m 0 min 0 min 0 W/m 6,3 km/h (2 Bft)
15.08.2015 03:04 19,3 C 17,2 C 85 % 0 lf 1005,7 hPa 0,0 l/m 0 min 0 min 0 W/m 8,4 km/h (2 Bft)
15.08.2015 03:06 19,3 C 17,2 C 85 % 0 lf 1005,8 hPa 0,0 l/m 0 min 0 min 0 W/m 8,4 km/h (2 Bft)
15.08.2015 03:08 19,3 C 17,2 C 85 % 0 lf 1005,7 hPa 0,0 l/m 0 min 0 min 0 W/m 12,6 km/h (3 Bft)
15.08.2015 03:10 19,2 C 17,2 C 85 % 0 lf 1005,8 hPa 0,0 l/m 0 min 0 min 0 W/m 16,7 km/h (3 Bft)
15.08.2015 03:12 19,2 C 17,2 C 84 % 0 lf 1005,7 hPa 0,0 l/m 0 min 0 min 0 W/m 10,5 km/h (2 Bft)
15.08.2015 03:14 19,2 C 17,2 C 84 % 0 lf 1005,7 hPa 0,0 l/m 0 min 0 min 0 W/m 12,6 km/h (3 Bft)
15.08.2015 03:16 19,2 C 17,2 C 84 % 0 lf 1005,7 hPa 0,0 l/m 0 min 0 min 0 W/m 8,4 km/h (2 Bft)
15.08.2015 03:18 19,1 C 17,2 C 84 % 0 lf 1005,8 hPa 0,0 l/m 0 min 0 min 0 W/m 12,6 km/h (3 Bft)
15.08.2015 03:20 19,1 C 17,2 C 84 % 0 lf 1005,8 hPa 0,0 l/m 0 min 0 min 0 W/m 8,4 km/h (2 Bft)
15.08.2015 03:22 19,1 C 17,2 C 84 % 0 lf 1005,8 hPa 0,0 l/m 0 min 0 min 0 W/m 12,6 km/h (3 Bft)
15.08.2015 03:24 19,1 C 17,2 C 84 % 0 lf 1006,0 hPa 0,0 l/m 0 min 0 min 0 W/m 12,6 km/h (3 Bft)
15.08.2015 03:26 19,1 C 17,2 C 84 % 0 lf 1005,9 hPa 0,0 l/m 0 min 0 min 0 W/m 10,5 km/h (2 Bft)
15.08.2015 03:28 19,0 C 17,2 C 84 % 0 lf 1005,8 hPa 0,0 l/m 0 min 0 min 0 W/m 8,4 km/h (2 Bft)
15.08.2015 03:30 19,0 C 17,2 C 84 % 0 lf 1005,8 hPa 0,0 l/m 0 min 0 min 0 W/m 8,4 km/h (2 Bft)
15.08.2015 03:32 19,0 C 17,2 C 84 % 0 lf 1005,8 hPa 0,0 l/m 0 min 0 min 0 W/m 8,4 km/h (2 Bft)
15.08.2015 03:34 18,9 C 17,2 C 84 % 0 lf 1006,0 hPa 0,0 l/m 0 min 0 min 0 W/m 10,5 km/h (2 Bft)
15.08.2015 03:36 18,9 C 17,8 C 84 % 0 lf 1005,8 hPa 0,0 l/m 0 min 0 min 0 W/m 10,5 km/h (2 Bft)
15.08.2015 03:38 18,9 C 17,8 C 84 % 0 lf 1005,9 hPa 0,0 l/m 0 min 0 min 0 W/m 8,4 km/h (2 Bft)
15.08.2015 03:40 18,9 C 17,8 C 84 % 0 lf 1006,0 hPa 0,0 l/m 0 min 0 min 0 W/m 8,4 km/h (2 Bft)
15.08.2015 03:42 18,9 C 17,8 C 84 % 0 lf 1006,0 hPa 0,0 l/m 0 min 0 min 0 W/m 8,4 km/h (2 Bft)
15.08.2015 03:44 18,9 C 17,2 C 84 % 0 lf 1005,9 hPa 0,0 l/m 0 min 0 min 0 W/m 6,3 km/h (2 Bft)
15.08.2015 03:46 18,9 C 17,2 C 84 % 0 lf 1006,0 hPa 0,0 l/m 0 min 0 min 0 W/m 8,4 km/h (2 Bft)
15.08.2015 03:48 18,9 C 17,2 C 84 % 0 lf 1006,0 hPa 0,0 l/m 0 min 0 min 0 W/m 6,3 km/h (2 Bft)
15.08.2015 03:50 18,9 C 17,2 C 84 % 0 lf 1006,0 hPa 0,0 l/m 0 min 0 min 0 W/m 10,5 km/h (2 Bft)
15.08.2015 03:52 18,9 C 17,2 C 84 % 0 lf 1006,0 hPa 0,0 l/m 0 min 0 min 0 W/m 10,5 km/h (2 Bft)
15.08.2015 03:54 18,9 C 17,2 C 84 % 0 lf 1006,1 hPa 0,0 l/m 0 min 0 min 0 W/m 6,3 km/h (2 Bft)
15.08.2015 03:56 18,9 C 17,2 C 84 % 0 lf 1006,0 hPa 0,0 l/m 0 min 0 min 0 W/m 6,3 km/h (2 Bft)
15.08.2015 03:58 18,9 C 17,2 C 84 % 0 lf 1006,1 hPa 0,0 l/m 0 min 0 min 0 W/m 6,3 km/h (2 Bft)
15.08.2015 04:00 18,9 C 16,7 C 85 % 0 lf 1006,1 hPa 0,0 l/m 0 min 0 min 0 W/m 6,3 km/h (2 Bft)
15.08.2015 04:02 18,8 C 16,7 C 85 % 0 lf 1006,2 hPa 0,0 l/m 0 min 0 min 0 W/m 4,2 km/h (1 Bft)
15.08.2015 04:04 18,8 C 16,7 C 85 % 0 lf 1006,1 hPa 0,0 l/m 0 min 0 min 0 W/m 4,2 km/h (1 Bft)
15.08.2015 04:06 18,8 C 16,7 C 85 % 0 lf 1006,0 hPa 0,0 l/m 0 min 0 min 0 W/m 0,0 km/h (0 Bft)
15.08.2015 04:08 18,8 C 16,7 C 85 % 0 lf 1006,1 hPa 0,0 l/m 0 min 0 min 0 W/m 2,1 km/h (1 Bft)
15.08.2015 04:10 18,8 C 16,7 C 85 % 0 lf 1006,1 hPa 0,0 l/m 0 min 0 min 0 W/m 2,1 km/h (1 Bft)
15.08.2015 04:12 18,8 C 16,1 C 85 % 0 lf 1006,1 hPa 0,0 l/m 0 min 0 min 0 W/m 2,1 km/h (1 Bft)
15.08.2015 04:14 18,8 C 16,1 C 85 % 0 lf 1006,0 hPa 0,0 l/m 0 min 0 min 0 W/m 2,1 km/h (1 Bft)
15.08.2015 04:16 18,8 C 16,1 C 85 % 0 lf 1006,0 hPa 0,0 l/m 0 min 0 min 0 W/m 4,2 km/h (1 Bft)
15.08.2015 04:18 18,7 C 16,1 C 85 % 0 lf 1006,0 hPa 0,0 l/m 0 min 0 min 0 W/m 2,1 km/h (1 Bft)
15.08.2015 04:20 18,7 C 16,1 C 85 % 0 lf 1006,1 hPa 0,0 l/m 0 min 0 min 0 W/m 4,2 km/h (1 Bft)
15.08.2015 04:22 18,7 C 16,1 C 85 % 0 lf 1006,1 hPa 0,0 l/m 0 min 0 min 0 W/m 4,2 km/h (1 Bft)
15.08.2015 04:24 18,6 C 16,1 C 85 % 0 lf 1006,2 hPa 0,0 l/m 0 min 0 min 0 W/m 2,1 km/h (1 Bft)
15.08.2015 04:26 18,6 C 15,6 C 85 % 0 lf 1006,3 hPa 0,0 l/m 0 min 0 min 0 W/m 4,2 km/h (1 Bft)
15.08.2015 04:28 18,6 C 15,6 C 85 % 0 lf 1006,3 hPa 0,0 l/m 0 min 0 min 0 W/m 6,3 km/h (2 Bft)
15.08.2015 04:30 18,6 C 15,6 C 85 % 0 lf 1006,2 hPa 0,0 l/m 0 min 0 min 0 W/m 6,3 km/h (2 Bft)
15.08.2015 04:32 18,5 C 15,6 C 86 % 0 lf 1006,3 hPa 0,0 l/m 0 min 0 min 0 W/m 4,2 km/h (1 Bft)
15.08.2015 04:34 18,4 C 15,6 C 86 % 0 lf 1006,2 hPa 0,0 l/m 0 min 0 min 0 W/m 4,2 km/h (1 Bft)
15.08.2015 04:36 18,4 C 15,6 C 86 % 1 lf 1006,3 hPa 0,0 l/m 0 min 0 min 0 W/m 2,1 km/h (1 Bft)
15.08.2015 04:38 18,4 C 15,6 C 86 % 1 lf 1006,4 hPa 0,0 l/m 0 min 0 min 0 W/m 4,2 km/h (1 Bft)
15.08.2015 04:40 18,3 C 15,6 C 86 % 1 lf 1006,4 hPa 0,0 l/m 0 min 0 min 0 W/m 6,3 km/h (2 Bft)
15.08.2015 04:42 18,3 C 15,6 C 86 % 1 lf 1006,4 hPa 0,0 l/m 0 min 0 min 0 W/m 2,1 km/h (1 Bft)
15.08.2015 04:44 18,2 C 15,6 C 86 % 1 lf 1006,4 hPa 0,0 l/m 0 min 0 min 0 W/m 4,2 km/h (1 Bft)
15.08.2015 04:46 18,2 C 15,6 C 86 % 1 lf 1006,3 hPa 0,0 l/m 0 min 0 min 0 W/m 2,1 km/h (1 Bft)
15.08.2015 04:48 18,2 C 15,6 C 86 % 1 lf 1006,4 hPa 0,0 l/m 0 min 0 min 0 W/m 4,2 km/h (1 Bft)
15.08.2015 04:50 18,1 C 15,6 C 87 % 1 lf 1006,4 hPa 0,0 l/m 0 min 0 min 0 W/m 4,2 km/h (1 Bft)
15.08.2015 04:52 18,1 C 15,6 C 87 % 1 lf 1006,4 hPa 0,0 l/m 0 min 0 min 0 W/m 6,3 km/h (2 Bft)
15.08.2015 04:54 18,1 C 15,6 C 87 % 1 lf 1006,4 hPa 0,0 l/m 0 min 0 min 0 W/m 4,2 km/h (1 Bft)
15.08.2015 04:56 18,1 C 15,6 C 87 % 1 lf 1006,4 hPa 0,0 l/m 0 min 0 min 0 W/m 4,2 km/h (1 Bft)
15.08.2015 04:58 18,0 C 15,6 C 87 % 1 lf 1006,4 hPa 0,0 l/m 0 min 0 min 0 W/m 4,2 km/h (1 Bft)
15.08.2015 05:00 17,9 C 15,6 C 87 % 1 lf 1006,4 hPa 0,0 l/m 0 min 0 min 0 W/m 4,2 km/h (1 Bft)
15.08.2015 05:02 17,9 C 15,6 C 87 % 1 lf 1006,4 hPa 0,0 l/m 0 min 0 min 0 W/m 4,2 km/h (1 Bft)
15.08.2015 05:04 17,9 C 15,6 C 87 % 1 lf 1006,4 hPa 0,0 l/m 0 min 0 min 0 W/m 4,2 km/h (1 Bft)
15.08.2015 05:06 17,8 C 15,6 C 88 % 1 lf 1006,4 hPa 0,0 l/m 0 min 0 min 0 W/m 4,2 km/h (1 Bft)
15.08.2015 05:08 17,8 C 15,0 C 88 % 1 lf 1006,4 hPa 0,0 l/m 0 min 0 min 0 W/m 4,2 km/h (1 Bft)
15.08.2015 05:10 17,8 C 15,0 C 88 % 1 lf 1006,4 hPa 0,0 l/m 0 min 0 min 0 W/m 4,2 km/h (1 Bft)
15.08.2015 05:12 17,7 C 15,0 C 88 % 1 lf 1006,4 hPa 0,0 l/m 0 min 0 min 0 W/m 4,2 km/h (1 Bft)
15.08.2015 05:14 17,7 C 15,0 C 88 % 1 lf 1006,4 hPa 0,0 l/m 0 min 0 min 0 W/m 4,2 km/h (1 Bft)
15.08.2015 05:16 17,7 C 15,0 C 88 % 1 lf 1006,4 hPa 0,0 l/m 0 min 0 min 0 W/m 4,2 km/h (1 Bft)
15.08.2015 05:18 17,6 C 15,0 C 88 % 1 lf 1006,4 hPa 0,0 l/m 0 min 0 min 0 W/m 2,1 km/h (1 Bft)
15.08.2015 05:20 17,6 C 15,0 C 88 % 1 lf 1006,4 hPa 0,0 l/m 0 min 0 min 0 W/m 2,1 km/h (1 Bft)
15.08.2015 05:22 17,6 C 15,0 C 88 % 1 lf 1006,4 hPa 0,0 l/m 0 min 0 min 0 W/m 2,1 km/h (1 Bft)
15.08.2015 05:24 17,5 C 15,0 C 88 % 1 lf 1006,4 hPa 0,0 l/m 0 min 0 min 0 W/m 2,1 km/h (1 Bft)
15.08.2015 05:26 17,5 C 15,0 C 88 % 1 lf 1006,3 hPa 0,0 l/m 0 min 0 min 0 W/m 2,1 km/h (1 Bft)
15.08.2015 05:28 17,4 C 15,0 C 88 % 1 lf 1006,3 hPa 0,0 l/m 0 min 0 min 0 W/m 4,2 km/h (1 Bft)
15.08.2015 05:30 17,4 C 15,0 C 88 % 1 lf 1006,3 hPa 0,0 l/m 0 min 0 min 0 W/m 2,1 km/h (1 Bft)
15.08.2015 05:32 17,4 C 15,0 C 88 % 1 lf 1006,3 hPa 0,0 l/m 0 min 0 min 0 W/m 4,2 km/h (1 Bft)
15.08.2015 05:34 17,4 C 15,0 C 88 % 1 lf 1006,3 hPa 0,0 l/m 0 min 0 min 0 W/m 4,2 km/h (1 Bft)
15.08.2015 05:36 17,3 C 15,0 C 88 % 1 lf 1006,3 hPa 0,0 l/m 0 min 0 min 0 W/m 2,1 km/h (1 Bft)
15.08.2015 05:38 17,3 C 15,0 C 89 % 1 lf 1006,3 hPa 0,0 l/m 0 min 0 min 0 W/m 4,2 km/h (1 Bft)
15.08.2015 05:40 17,3 C 15,0 C 89 % 1 lf 1006,3 hPa 0,0 l/m 0 min 0 min 0 W/m 4,2 km/h (1 Bft)
15.08.2015 05:42 17,3 C 15,0 C 89 % 1 lf 1006,3 hPa 0,0 l/m 0 min 0 min 0 W/m 2,1 km/h (1 Bft)
15.08.2015 05:44 17,2 C 15,0 C 89 % 1 lf 1006,3 hPa 0,0 l/m 0 min 0 min 0 W/m 4,2 km/h (1 Bft)
15.08.2015 05:46 17,2 C 15,0 C 89 % 1 lf 1006,3 hPa 0,0 l/m 0 min 0 min 0 W/m 6,3 km/h (2 Bft)
15.08.2015 05:48 17,2 C 15,0 C 89 % 1 lf 1006,3 hPa 0,0 l/m 0 min 0 min 0 W/m 4,2 km/h (1 Bft)
15.08.2015 05:50 17,2 C 15,0 C 89 % 1 lf 1006,3 hPa 0,0 l/m 0 min 0 min 0 W/m 8,4 km/h (2 Bft)
15.08.2015 05:52 17,1 C 15,0 C 89 % 1 lf 1006,3 hPa 0,0 l/m 0 min 0 min 0 W/m 10,5 km/h (2 Bft)
15.08.2015 05:54 17,1 C 15,0 C 89 % 1 lf 1006,3 hPa 0,0 l/m 0 min 0 min 0 W/m 10,5 km/h (2 Bft)
15.08.2015 05:56 17,1 C 15,0 C 90 % 1 lf 1006,3 hPa 0,0 l/m 0 min 0 min 0 W/m 6,3 km/h (2 Bft)
15.08.2015 05:58 17,1 C 15,0 C 90 % 1 lf 1006,3 hPa 0,0 l/m 0 min 0 min 0 W/m 8,4 km/h (2 Bft)
15.08.2015 06:00 17,0 C 15,0 C 90 % 1 lf 1006,3 hPa 0,0 l/m 0 min 0 min 0 W/m 8,4 km/h (2 Bft)
15.08.2015 06:02 17,0 C 15,0 C 90 % 1 lf 1006,3 hPa 0,0 l/m 0 min 0 min 0 W/m 10,5 km/h (2 Bft)
15.08.2015 06:05 16,9 C 15,0 C 90 % 1 lf 1006,3 hPa 0,0 l/m 0 min 0 min 0 W/m 12,6 km/h (3 Bft)
15.08.2015 06:06 17,0 C 15,0 C 90 % 1 lf 1006,3 hPa 0,0 l/m 0 min 0 min 0 W/m 12,6 km/h (3 Bft)
15.08.2015 06:08 16,9 C 15,0 C 90 % 1 lf 1006,3 hPa 0,0 l/m 0 min 0 min 0 W/m 10,5 km/h (2 Bft)
15.08.2015 06:10 16,9 C 15,0 C 91 % 1 lf 1006,3 hPa 0,0 l/m 0 min 0 min 0 W/m 10,5 km/h (2 Bft)
15.08.2015 06:12 16,9 C 15,6 C 91 % 1 lf 1006,2 hPa 0,0 l/m 0 min 0 min 0 W/m 8,4 km/h (2 Bft)
15.08.2015 06:14 16,9 C 15,6 C 91 % 1 lf 1006,3 hPa 0,0 l/m 0 min 0 min 0 W/m 12,6 km/h (3 Bft)
15.08.2015 06:16 16,9 C 15,6 C 91 % 1 lf 1006,3 hPa 0,0 l/m 0 min 0 min 0 W/m 10,5 km/h (2 Bft)
15.08.2015 06:18 16,9 C 15,6 C 91 % 1 lf 1006,3 hPa 0,0 l/m 0 min 0 min 0 W/m 12,6 km/h (3 Bft)
15.08.2015 06:20 16,9 C 15,6 C 91 % 1 lf 1006,2 hPa 0,0 l/m 0 min 0 min 0 W/m 10,5 km/h (2 Bft)
15.08.2015 06:22 16,9 C 15,6 C 92 % 1 lf 1006,2 hPa 0,0 l/m 0 min 0 min 5 W/m 10,5 km/h (2 Bft)
15.08.2015 06:24 16,9 C 15,6 C 92 % 1 lf 1006,2 hPa 0,0 l/m 0 min 0 min 5 W/m 4,2 km/h (1 Bft)
15.08.2015 06:26 16,9 C 15,6 C 92 % 1 lf 1006,3 hPa 0,0 l/m 0 min 0 min 5 W/m 8,4 km/h (2 Bft)
15.08.2015 06:28 16,9 C 15,6 C 92 % 1 lf 1006,3 hPa 0,0 l/m 0 min 0 min 5 W/m 6,3 km/h (2 Bft)
15.08.2015 06:30 16,9 C 15,6 C 92 % 1 lf 1006,3 hPa 0,0 l/m 0 min 0 min 5 W/m 8,4 km/h (2 Bft)
15.08.2015 06:32 16,9 C 15,6 C 92 % 1 lf 1006,3 hPa 0,0 l/m 0 min 0 min 7 W/m 8,4 km/h (2 Bft)
15.08.2015 06:34 16,9 C 15,6 C 92 % 1 lf 1006,3 hPa 0,0 l/m 0 min 0 min 7 W/m 6,3 km/h (2 Bft)
15.08.2015 06:36 16,9 C 16,1 C 92 % 1 lf 1006,3 hPa 0,0 l/m 0 min 0 min 9 W/m 6,3 km/h (2 Bft)
15.08.2015 06:38 16,9 C 16,1 C 92 % 1 lf 1006,3 hPa 0,0 l/m 0 min 0 min 12 W/m 6,3 km/h (2 Bft)
15.08.2015 06:40 16,9 C 16,1 C 92 % 1 lf 1006,3 hPa 0,0 l/m 0 min 0 min 15 W/m 4,2 km/h (1 Bft)
15.08.2015 06:42 16,9 C 16,1 C 92 % 0 lf 1006,3 hPa 0,0 l/m 0 min 0 min 17 W/m 6,3 km/h (2 Bft)
15.08.2015 06:44 16,9 C 16,1 C 92 % 0 lf 1006,4 hPa 0,0 l/m 0 min 0 min 17 W/m 8,4 km/h (2 Bft)
15.08.2015 06:46 16,9 C 16,1 C 92 % 0 lf 1006,4 hPa 0,0 l/m 0 min 0 min 17 W/m 6,3 km/h (2 Bft)
15.08.2015 06:48 16,9 C 16,1 C 92 % 0 lf 1006,4 hPa 0,0 l/m 0 min 0 min 19 W/m 6,3 km/h (2 Bft)
15.08.2015 06:50 16,9 C 16,1 C 92 % 0 lf 1006,4 hPa 0,0 l/m 0 min 0 min 24 W/m 6,3 km/h (2 Bft)
15.08.2015 06:52 17,0 C 16,7 C 92 % 0 lf 1006,4 hPa 0,0 l/m 0 min 0 min 28 W/m 6,3 km/h (2 Bft)
15.08.2015 06:54 17,0 C 16,7 C 93 % 0 lf 1006,5 hPa 0,0 l/m 2 min 0 min 39 W/m 6,3 km/h (2 Bft)
15.08.2015 06:56 17,0 C 16,7 C 93 % 0 lf 1006,4 hPa 0,0 l/m 2 min 0 min 41 W/m 4,2 km/h (1 Bft)
15.08.2015 06:58 17,0 C 16,7 C 93 % 0 lf 1006,4 hPa 0,0 l/m 0 min 0 min 38 W/m 6,3 km/h (2 Bft)
15.08.2015 07:00 17,1 C 16,7 C 93 % 0 lf 1006,4 hPa 0,0 l/m 0 min 0 min 40 W/m 6,3 km/h (2 Bft)
15.08.2015 07:02 17,1 C 16,7 C 93 % 0 lf 1006,4 hPa 0,0 l/m 0 min 0 min 45 W/m 6,3 km/h (2 Bft)
15.08.2015 07:04 17,1 C 16,7 C 93 % 0 lf 1006,5 hPa 0,0 l/m 2 min 0 min 56 W/m 8,4 km/h (2 Bft)
15.08.2015 07:06 17,1 C 16,7 C 93 % 0 lf 1006,5 hPa 0,0 l/m 2 min 0 min 72 W/m 6,3 km/h (2 Bft)
15.08.2015 07:08 17,2 C 16,7 C 93 % 0 lf 1006,5 hPa 0,0 l/m 2 min 0 min 74 W/m 10,5 km/h (2 Bft)
15.08.2015 07:10 17,2 C 16,7 C 93 % 0 lf 1006,6 hPa 0,0 l/m 2 min 0 min 70 W/m 12,6 km/h (3 Bft)
15.08.2015 07:12 17,2 C 17,2 C 93 % 0 lf 1006,7 hPa 0,0 l/m 2 min 0 min 88 W/m 8,4 km/h (2 Bft)
15.08.2015 07:14 17,3 C 17,2 C 93 % 0 lf 1006,7 hPa 0,0 l/m 2 min 0 min 107 W/m 4,2 km/h (1 Bft)
15.08.2015 07:16 17,3 C 17,2 C 93 % 0 lf 1006,7 hPa 0,0 l/m 2 min 0 min 102 W/m 12,6 km/h (3 Bft)
15.08.2015 07:18 17,3 C 17,2 C 93 % 0 lf 1006,7 hPa 0,0 l/m 2 min 0 min 89 W/m 8,4 km/h (2 Bft)
15.08.2015 07:20 17,4 C 17,2 C 93 % 0 lf 1006,6 hPa 0,0 l/m 0 min 0 min 61 W/m 8,4 km/h (2 Bft)
15.08.2015 07:22 17,4 C 17,2 C 93 % 0 lf 1006,7 hPa 0,0 l/m 0 min 0 min 68 W/m 14,6 km/h (3 Bft)
15.08.2015 07:24 17,5 C 17,2 C 93 % 0 lf 1006,7 hPa 0,0 l/m 0 min 0 min 69 W/m 8,4 km/h (2 Bft)
15.08.2015 07:26 17,6 C 17,2 C 93 % 0 lf 1006,7 hPa 0,0 l/m 2 min 0 min 84 W/m 16,7 km/h (3 Bft)
15.08.2015 07:28 17,6 C 17,2 C 93 % 0 lf 1006,7 hPa 0,0 l/m 0 min 0 min 74 W/m 10,5 km/h (2 Bft)
15.08.2015 07:30 17,6 C 17,2 C 93 % 0 lf 1006,7 hPa 0,0 l/m 0 min 0 min 76 W/m 10,5 km/h (2 Bft)
15.08.2015 07:32 17,7 C 17,8 C 93 % 0 lf 1006,7 hPa 0,0 l/m 0 min 0 min 77 W/m 14,6 km/h (3 Bft)
15.08.2015 07:34 17,7 C 17,8 C 93 % 0 lf 1006,8 hPa 0,0 l/m 0 min 0 min 74 W/m 14,6 km/h (3 Bft)
15.08.2015 07:36 17,8 C 17,8 C 93 % 0 lf 1006,8 hPa 0,0 l/m 0 min 0 min 70 W/m 18,8 km/h (3 Bft)
15.08.2015 07:38 17,8 C 17,8 C 93 % 0 lf 1006,8 hPa 0,0 l/m 0 min 0 min 69 W/m 16,7 km/h (3 Bft)
15.08.2015 07:40 17,8 C 17,8 C 92 % 0 lf 1006,8 hPa 0,0 l/m 0 min 0 min 70 W/m 10,5 km/h (2 Bft)
15.08.2015 07:42 17,9 C 17,8 C 92 % 0 lf 1006,9 hPa 0,0 l/m 0 min 0 min 72 W/m 14,6 km/h (3 Bft)
15.08.2015 07:44 17,9 C 17,8 C 92 % 0 lf 1006,9 hPa 0,0 l/m 0 min 0 min 72 W/m 14,6 km/h (3 Bft)
15.08.2015 07:46 18,0 C 17,8 C 92 % 0 lf 1006,9 hPa 0,0 l/m 0 min 0 min 74 W/m 12,6 km/h (3 Bft)
15.08.2015 07:48 18,1 C 17,8 C 92 % 0 lf 1006,9 hPa 0,0 l/m 0 min 0 min 75 W/m 10,5 km/h (2 Bft)
15.08.2015 07:50 18,1 C 17,8 C 92 % 0 lf 1006,9 hPa 0,0 l/m 0 min 0 min 74 W/m 10,5 km/h (2 Bft)
15.08.2015 07:52 18,2 C 17,8 C 92 % 0 lf 1006,8 hPa 0,0 l/m 0 min 0 min 74 W/m 16,7 km/h (3 Bft)
15.08.2015 07:54 18,2 C 17,8 C 91 % 0 lf 1006,9 hPa 0,0 l/m 0 min 0 min 74 W/m 14,6 km/h (3 Bft)
15.08.2015 07:56 18,2 C 17,8 C 91 % 0 lf 1006,9 hPa 0,0 l/m 0 min 0 min 76 W/m 10,5 km/h (2 Bft)
15.08.2015 07:58 18,3 C 17,8 C 91 % 0 lf 1006,8 hPa 0,0 l/m 0 min 0 min 74 W/m 14,6 km/h (3 Bft)
15.08.2015 08:00 18,3 C 17,8 C 91 % 0 lf 1006,9 hPa 0,0 l/m 0 min 0 min 74 W/m 12,6 km/h (3 Bft)
15.08.2015 08:02 18,4 C 17,8 C 91 % 0 lf 1006,9 hPa 0,0 l/m 0 min 0 min 76 W/m 10,5 km/h (2 Bft)
15.08.2015 08:04 18,4 C 17,8 C 91 % 0 lf 1006,9 hPa 0,0 l/m 0 min 0 min 76 W/m 10,5 km/h (2 Bft)
15.08.2015 08:06 18,4 C 18,3 C 91 % 0 lf 1006,9 hPa 0,0 l/m 0 min 0 min 77 W/m 12,6 km/h (3 Bft)
15.08.2015 08:08 18,5 C 18,3 C 91 % 0 lf 1006,8 hPa 0,0 l/m 0 min 0 min 77 W/m 14,6 km/h (3 Bft)
15.08.2015 08:10 18,6 C 18,3 C 90 % 0 lf 1006,9 hPa 0,0 l/m 0 min 0 min 80 W/m 14,6 km/h (3 Bft)
15.08.2015 08:12 18,6 C 18,3 C 90 % 0 lf 1006,9 hPa 0,0 l/m 0 min 0 min 83 W/m 14,6 km/h (3 Bft)
15.08.2015 08:14 18,6 C 18,3 C 90 % 0 lf 1006,9 hPa 0,0 l/m 0 min 0 min 83 W/m 12,6 km/h (3 Bft)
15.08.2015 08:16 18,7 C 18,3 C 90 % 0 lf 1006,9 hPa 0,0 l/m 0 min 0 min 89 W/m 10,5 km/h (2 Bft)
15.08.2015 08:18 18,7 C 18,3 C 90 % 0 lf 1006,9 hPa 0,0 l/m 0 min 0 min 92 W/m 6,3 km/h (2 Bft)
15.08.2015 08:20 18,7 C 18,3 C 90 % 0 lf 1006,9 hPa 0,0 l/m 0 min 0 min 96 W/m 8,4 km/h (2 Bft)
15.08.2015 08:22 18,8 C 18,3 C 90 % 0 lf 1006,9 hPa 0,0 l/m 0 min 0 min 98 W/m 12,6 km/h (3 Bft)
15.08.2015 08:24 18,8 C 18,3 C 89 % 0 lf 1006,9 hPa 0,0 l/m 0 min 0 min 102 W/m 12,6 km/h (3 Bft)
15.08.2015 08:26 18,9 C 18,3 C 89 % 0 lf 1006,9 hPa 0,0 l/m 0 min 0 min 110 W/m 8,4 km/h (2 Bft)
15.08.2015 08:28 18,9 C 18,3 C 89 % 0 lf 1006,9 hPa 0,0 l/m 0 min 0 min 123 W/m 18,8 km/h (3 Bft)
15.08.2015 08:30 18,9 C 18,3 C 89 % 0 lf 1006,9 hPa 0,0 l/m 0 min 0 min 144 W/m 12,6 km/h (3 Bft)
15.08.2015 08:32 19,0 C 18,3 C 89 % 0 lf 1006,9 hPa 0,0 l/m 0 min 0 min 141 W/m 14,6 km/h (3 Bft)
15.08.2015 08:34 19,0 C 18,9 C 89 % 0 lf 1006,9 hPa 0,0 l/m 0 min 0 min 146 W/m 14,6 km/h (3 Bft)
15.08.2015 08:36 19,1 C 18,9 C 88 % 0 lf 1006,9 hPa 0,0 l/m 0 min 0 min 150 W/m 12,6 km/h (3 Bft)
15.08.2015 08:38 19,1 C 18,9 C 88 % 0 lf 1007,0 hPa 0,0 l/m 0 min 0 min 155 W/m 14,6 km/h (3 Bft)
15.08.2015 08:40 19,2 C 18,9 C 88 % 0 lf 1007,0 hPa 0,0 l/m 0 min 0 min 164 W/m 8,4 km/h (2 Bft)
15.08.2015 08:42 19,2 C 18,9 C 88 % 0 lf 1007,0 hPa 0,0 l/m 0 min 0 min 169 W/m 6,3 km/h (2 Bft)
15.08.2015 08:44 19,2 C 18,9 C 88 % 0 lf 1006,9 hPa 0,0 l/m 0 min 0 min 175 W/m 10,5 km/h (2 Bft)
15.08.2015 08:46 19,3 C 18,9 C 88 % 0 lf 1006,9 hPa 0,0 l/m 0 min 0 min 174 W/m 12,6 km/h (3 Bft)
15.08.2015 08:48 19,3 C 18,9 C 87 % 0 lf 1006,8 hPa 0,0 l/m 0 min 0 min 171 W/m 14,6 km/h (3 Bft)
15.08.2015 08:50 19,3 C 18,9 C 87 % 0 lf 1006,9 hPa 0,0 l/m 0 min 0 min 177 W/m 10,5 km/h (2 Bft)
15.08.2015 08:52 19,4 C 19,4 C 87 % 0 lf 1006,9 hPa 0,0 l/m 2 min 0 min 192 W/m 12,6 km/h (3 Bft)
15.08.2015 08:54 19,4 C 19,4 C 87 % 0 lf 1006,9 hPa 0,0 l/m 2 min 0 min 204 W/m 12,6 km/h (3 Bft)
15.08.2015 08:56 19,5 C 19,4 C 87 % 0 lf 1006,8 hPa 0,0 l/m 2 min 0 min 211 W/m 12,6 km/h (3 Bft)
15.08.2015 08:58 19,6 C 19,4 C 87 % 0 lf 1006,9 hPa 0,0 l/m 2 min 0 min 214 W/m 12,6 km/h (3 Bft)
15.08.2015 09:00 19,6 C 19,4 C 87 % 0 lf 1006,8 hPa 0,0 l/m 2 min 0 min 209 W/m 12,6 km/h (3 Bft)
15.08.2015 09:02 19,6 C 19,4 C 86 % 0 lf 1006,9 hPa 0,0 l/m 2 min 0 min 211 W/m 12,6 km/h (3 Bft)
15.08.2015 09:04 19,7 C 19,4 C 86 % 0 lf 1006,9 hPa 0,0 l/m 2 min 0 min 235 W/m 16,7 km/h (3 Bft)
15.08.2015 09:06 19,7 C 19,4 C 86 % 0 lf 1007,0 hPa 0,0 l/m 2 min 0 min 218 W/m 14,6 km/h (3 Bft)
15.08.2015 09:08 19,8 C 19,4 C 86 % 0 lf 1007,0 hPa 0,0 l/m 2 min 0 min 219 W/m 10,5 km/h (2 Bft)
15.08.2015 09:10 19,8 C 19,4 C 86 % 0 lf 1006,9 hPa 0,0 l/m 0 min 0 min 202 W/m 6,3 km/h (2 Bft)
15.08.2015 09:12 19,9 C 19,4 C 86 % 0 lf 1006,9 hPa 0,0 l/m 0 min 0 min 193 W/m 18,8 km/h (3 Bft)
15.08.2015 09:14 19,9 C 19,4 C 85 % 0 lf 1007,0 hPa 0,0 l/m 0 min 0 min 207 W/m 18,8 km/h (3 Bft)
15.08.2015 09:16 19,9 C 19,4 C 85 % 0 lf 1007,0 hPa 0,0 l/m 2 min 0 min 214 W/m 14,6 km/h (3 Bft)
15.08.2015 09:18 20,0 C 19,4 C 85 % 0 lf 1007,0 hPa 0,0 l/m 2 min 0 min 265 W/m 12,6 km/h (3 Bft)
15.08.2015 09:20 20,1 C 19,4 C 85 % 0 lf 1007,0 hPa 0,0 l/m 2 min 0 min 239 W/m 10,5 km/h (2 Bft)
15.08.2015 09:22 20,2 C 19,4 C 85 % 0 lf 1007,0 hPa 0,0 l/m 2 min 0 min 274 W/m 12,6 km/h (3 Bft)
15.08.2015 09:24 20,2 C 19,4 C 84 % 0 lf 1007,0 hPa 0,0 l/m 2 min 0 min 302 W/m 10,5 km/h (2 Bft)
15.08.2015 09:26 20,3 C 20,0 C 84 % 0 lf 1007,0 hPa 0,0 l/m 2 min 0 min 310 W/m 12,6 km/h (3 Bft)
15.08.2015 09:28 20,4 C 20,0 C 84 % 0 lf 1007,0 hPa 0,0 l/m 2 min 0 min 296 W/m 16,7 km/h (3 Bft)
15.08.2015 09:30 20,4 C 20,0 C 84 % 0 lf 1007,0 hPa 0,0 l/m 2 min 0 min 305 W/m 14,6 km/h (3 Bft)
15.08.2015 09:32 20,6 C 20,6 C 84 % 0 lf 1007,0 hPa 0,0 l/m 2 min 0 min 469 W/m 8,4 km/h (2 Bft)
15.08.2015 09:34 20,7 C 20,6 C 85 % 0 lf 1006,9 hPa 0,0 l/m 2 min 0 min 565 W/m 8,4 km/h (2 Bft)
15.08.2015 09:36 20,8 C 20,6 C 84 % 0 lf 1007,0 hPa 0,0 l/m 2 min 0 min 428 W/m 14,6 km/h (3 Bft)
15.08.2015 09:38 20,8 C 20,6 C 83 % 0 lf 1007,0 hPa 0,0 l/m 2 min 0 min 257 W/m 12,6 km/h (3 Bft)
15.08.2015 09:40 20,9 C 20,0 C 83 % 0 lf 1007,1 hPa 0,0 l/m 0 min 0 min 230 W/m 14,6 km/h (3 Bft)
15.08.2015 09:42 21,0 C 20,0 C 83 % 0 lf 1007,0 hPa 0,0 l/m 0 min 0 min 218 W/m 12,6 km/h (3 Bft)
15.08.2015 09:44 21,1 C 20,0 C 82 % 0 lf 1007,0 hPa 0,0 l/m 0 min 0 min 220 W/m 16,7 km/h (3 Bft)
15.08.2015 09:46 21,1 C 20,6 C 82 % 0 lf 1007,1 hPa 0,0 l/m 2 min 0 min 418 W/m 14,6 km/h (3 Bft)
15.08.2015 09:48 21,2 C 20,6 C 82 % 0 lf 1007,1 hPa 0,0 l/m 2 min 0 min 446 W/m 14,6 km/h (3 Bft)
15.08.2015 09:50 21,3 C 20,6 C 82 % 0 lf 1007,1 hPa 0,0 l/m 2 min 0 min 255 W/m 10,5 km/h (2 Bft)
15.08.2015 09:52 21,4 C 21,1 C 82 % 0 lf 1007,1 hPa 0,0 l/m 0 min 0 min 226 W/m 16,7 km/h (3 Bft)
15.08.2015 09:54 21,5 C 21,1 C 82 % 0 lf 1007,1 hPa 0,0 l/m 2 min 0 min 562 W/m 14,6 km/h (3 Bft)
15.08.2015 09:56 21,6 C 21,1 C 81 % 0 lf 1007,1 hPa 0,0 l/m 0 min 0 min 251 W/m 14,6 km/h (3 Bft)
15.08.2015 09:58 21,7 C 21,1 C 81 % 0 lf 1007,1 hPa 0,0 l/m 2 min 0 min 274 W/m 18,8 km/h (3 Bft)
15.08.2015 10:00 21,7 C 21,1 C 81 % 0 lf 1007,2 hPa 0,0 l/m 2 min 0 min 288 W/m 18,8 km/h (3 Bft)
15.08.2015 10:02 21,7 C 21,1 C 80 % 0 lf 1007,2 hPa 0,0 l/m 2 min 0 min 272 W/m 18,8 km/h (3 Bft)
15.08.2015 10:04 21,8 C 21,1 C 80 % 0 lf 1007,2 hPa 0,0 l/m 0 min 0 min 247 W/m 16,7 km/h (3 Bft)
15.08.2015 10:06 21,8 C 21,1 C 80 % 0 lf 1007,2 hPa 0,0 l/m 0 min 0 min 233 W/m 16,7 km/h (3 Bft)
15.08.2015 10:08 21,8 C 21,1 C 80 % 0 lf 1007,2 hPa 0,0 l/m 0 min 0 min 222 W/m 12,6 km/h (3 Bft)
15.08.2015 10:10 21,8 C 20,6 C 79 % 0 lf 1007,2 hPa 0,0 l/m 0 min 0 min 217 W/m 16,7 km/h (3 Bft)
15.08.2015 10:12 21,8 C 20,6 C 79 % 0 lf 1007,3 hPa 0,0 l/m 0 min 0 min 223 W/m 12,6 km/h (3 Bft)
15.08.2015 10:14 21,8 C 20,6 C 79 % 0 lf 1007,2 hPa 0,0 l/m 0 min 0 min 226 W/m 14,6 km/h (3 Bft)
15.08.2015 10:16 21,8 C 20,6 C 79 % 0 lf 1007,2 hPa 0,0 l/m 0 min 0 min 229 W/m 12,6 km/h (3 Bft)
15.08.2015 10:18 21,8 C 20,6 C 79 % 0 lf 1007,3 hPa 0,0 l/m 0 min 0 min 235 W/m 8,4 km/h (2 Bft)
15.08.2015 10:20 21,8 C 21,1 C 79 % 0 lf 1007,3 hPa 0,0 l/m 0 min 0 min 255 W/m 6,3 km/h (2 Bft)
15.08.2015 10:22 21,8 C 21,1 C 80 % 0 lf 1007,3 hPa 0,0 l/m 0 min 0 min 272 W/m 8,4 km/h (2 Bft)
15.08.2015 10:24 21,8 C 21,7 C 80 % 0 lf 1007,3 hPa 0,0 l/m 0 min 0 min 279 W/m 10,5 km/h (2 Bft)
15.08.2015 10:26 21,9 C 21,7 C 80 % 0 lf 1007,3 hPa 0,0 l/m 2 min 0 min 313 W/m 12,6 km/h (3 Bft)
15.08.2015 10:28 21,9 C 21,7 C 80 % 0 lf 1007,4 hPa 0,0 l/m 2 min 0 min 329 W/m 14,6 km/h (3 Bft)
15.08.2015 10:30 22,0 C 21,7 C 80 % 0 lf 1007,3 hPa 0,0 l/m 2 min 0 min 351 W/m 10,5 km/h (2 Bft)
15.08.2015 10:32 22,1 C 21,7 C 79 % 0 lf 1007,3 hPa 0,0 l/m 2 min 0 min 296 W/m 8,4 km/h (2 Bft)
15.08.2015 10:34 22,1 C 21,7 C 79 % 0 lf 1007,3 hPa 0,0 l/m 0 min 0 min 242 W/m 8,4 km/h (2 Bft)
15.08.2015 10:36 22,2 C 21,7 C 80 % 0 lf 1007,3 hPa 0,0 l/m 0 min 0 min 241 W/m 12,6 km/h (3 Bft)
15.08.2015 10:38 22,2 C 21,7 C 79 % 0 lf 1007,4 hPa 0,0 l/m 0 min 0 min 220 W/m 10,5 km/h (2 Bft)
15.08.2015 10:40 22,2 C 21,1 C 79 % 0 lf 1007,4 hPa 0,0 l/m 0 min 0 min 184 W/m 12,6 km/h (3 Bft)
15.08.2015 10:42 22,2 C 21,1 C 78 % 0 lf 1007,4 hPa 0,0 l/m 0 min 0 min 167 W/m 10,5 km/h (2 Bft)
15.08.2015 10:44 22,3 C 21,1 C 78 % 0 lf 1007,4 hPa 0,0 l/m 0 min 0 min 157 W/m 8,4 km/h (2 Bft)
15.08.2015 10:46 22,3 C 21,1 C 78 % 0 lf 1007,4 hPa 0,0 l/m 0 min 0 min 155 W/m 8,4 km/h (2 Bft)
15.08.2015 10:48 22,3 C 21,1 C 78 % 0 lf 1007,5 hPa 0,0 l/m 0 min 0 min 146 W/m 10,5 km/h (2 Bft)
15.08.2015 10:50 22,3 C 21,1 C 78 % 0 lf 1007,5 hPa 0,0 l/m 0 min 0 min 138 W/m 6,3 km/h (2 Bft)
15.08.2015 10:52 22,3 C 21,1 C 78 % 0 lf 1007,5 hPa 0,0 l/m 0 min 0 min 139 W/m 8,4 km/h (2 Bft)
15.08.2015 10:54 22,3 C 20,6 C 78 % 0 lf 1007,5 hPa 0,0 l/m 0 min 0 min 149 W/m 10,5 km/h (2 Bft)
15.08.2015 10:56 22,3 C 20,6 C 78 % 0 lf 1007,5 hPa 0,0 l/m 0 min 0 min 164 W/m 10,5 km/h (2 Bft)
15.08.2015 10:58 22,2 C 20,6 C 78 % 0 lf 1007,4 hPa 0,0 l/m 0 min 0 min 178 W/m 10,5 km/h (2 Bft)
15.08.2015 11:00 22,2 C 20,6 C 78 % 0 lf 1007,4 hPa 0,0 l/m 0 min 0 min 185 W/m 8,4 km/h (2 Bft)
15.08.2015 11:02 22,2 C 21,1 C 78 % 0 lf 1007,4 hPa 0,0 l/m 0 min 0 min 182 W/m 6,3 km/h (2 Bft)
15.08.2015 11:04 22,2 C 21,1 C 78 % 0 lf 1007,5 hPa 0,0 l/m 0 min 0 min 159 W/m 6,3 km/h (2 Bft)
15.08.2015 11:06 22,2 C 21,1 C 78 % 0 lf 1007,4 hPa 0,0 l/m 0 min 0 min 133 W/m 8,4 km/h (2 Bft)
15.08.2015 11:08 22,2 C 20,6 C 78 % 0 lf 1007,5 hPa 0,0 l/m 0 min 0 min 103 W/m 6,3 km/h (2 Bft)
15.08.2015 11:10 22,2 C 20,6 C 79 % 0 lf 1007,5 hPa 0,0 l/m 0 min 0 min 75 W/m 6,3 km/h (2 Bft)
15.08.2015 11:12 22,2 C 20,6 C 79 % 0 lf 1007,5 hPa 0,0 l/m 0 min 0 min 59 W/m 6,3 km/h (2 Bft)
15.08.2015 11:14 22,1 C 20,0 C 79 % 0 lf 1007,5 hPa 0,0 l/m 0 min 0 min 50 W/m 10,5 km/h (2 Bft)
15.08.2015 11:16 22,1 C 20,0 C 79 % 0 lf 1007,5 hPa 0,0 l/m 0 min 0 min 51 W/m 12,6 km/h (3 Bft)
15.08.2015 11:18 22,1 C 20,0 C 78 % 0 lf 1007,4 hPa 0,0 l/m 0 min 0 min 53 W/m 10,5 km/h (2 Bft)
15.08.2015 11:20 22,0 C 20,0 C 78 % 0 lf 1007,5 hPa 0,0 l/m 0 min 0 min 52 W/m 6,3 km/h (2 Bft)
15.08.2015 11:22 21,9 C 20,0 C 78 % 0 lf 1007,5 hPa 0,0 l/m 0 min 0 min 48 W/m 4,2 km/h (1 Bft)
15.08.2015 11:24 21,9 C 20,0 C 78 % 0 lf 1007,5 hPa 0,0 l/m 0 min 0 min 47 W/m 8,4 km/h (2 Bft)
15.08.2015 11:26 21,9 C 20,0 C 78 % 0 lf 1007,6 hPa 0,0 l/m 0 min 0 min 48 W/m 8,4 km/h (2 Bft)
15.08.2015 11:28 21,9 C 20,0 C 79 % 0 lf 1007,6 hPa 0,0 l/m 0 min 0 min 54 W/m 8,4 km/h (2 Bft)
15.08.2015 11:30 21,8 C 20,0 C 79 % 0 lf 1007,5 hPa 0,0 l/m 0 min 0 min 68 W/m 6,3 km/h (2 Bft)
15.08.2015 11:32 21,8 C 20,0 C 79 % 0 lf 1007,5 hPa 0,0 l/m 0 min 0 min 84 W/m 8,4 km/h (2 Bft)
15.08.2015 11:34 21,8 C 20,0 C 79 % 0 lf 1007,5 hPa 0,0 l/m 0 min 0 min 98 W/m 8,4 km/h (2 Bft)
15.08.2015 11:36 21,8 C 20,0 C 79 % 0 lf 1007,5 hPa 0,0 l/m 0 min 0 min 115 W/m 4,2 km/h (1 Bft)
15.08.2015 11:38 21,7 C 20,0 C 80 % 0 lf 1007,6 hPa 0,0 l/m 0 min 0 min 140 W/m 6,3 km/h (2 Bft)
15.08.2015 11:40 21,7 C 20,6 C 80 % 0 lf 1007,5 hPa 0,0 l/m 0 min 0 min 177 W/m 6,3 km/h (2 Bft)
15.08.2015 11:42 21,7 C 20,6 C 80 % 0 lf 1007,5 hPa 0,0 l/m 0 min 0 min 212 W/m 8,4 km/h (2 Bft)
15.08.2015 11:44 21,7 C 21,1 C 80 % 0 lf 1007,5 hPa 0,0 l/m 0 min 0 min 232 W/m 12,6 km/h (3 Bft)
15.08.2015 11:46 21,7 C 21,1 C 80 % 0 lf 1007,5 hPa 0,0 l/m 0 min 0 min 263 W/m 10,5 km/h (2 Bft)
15.08.2015 11:48 21,7 C 21,7 C 79 % 0 lf 1007,5 hPa 0,0 l/m 0 min 0 min 299 W/m 6,3 km/h (2 Bft)
15.08.2015 11:50 21,8 C 21,7 C 80 % 0 lf 1007,5 hPa 0,0 l/m 0 min 0 min 324 W/m 8,4 km/h (2 Bft)
15.08.2015 11:52 21,8 C 22,2 C 80 % 0 lf 1007,6 hPa 0,0 l/m 0 min 0 min 326 W/m 8,4 km/h (2 Bft)
15.08.2015 11:54 21,9 C 22,2 C 79 % 0 lf 1007,5 hPa 0,0 l/m 0 min 0 min 305 W/m 8,4 km/h (2 Bft)
15.08.2015 11:56 21,9 C 22,2 C 79 % 0 lf 1007,5 hPa 0,0 l/m 0 min 0 min 264 W/m 8,4 km/h (2 Bft)
15.08.2015 11:58 22,0 C 22,2 C 79 % 0 lf 1007,5 hPa 0,0 l/m 0 min 0 min 211 W/m 8,4 km/h (2 Bft)
15.08.2015 12:00 22,0 C 21,7 C 79 % 0 lf 1007,5 hPa 0,0 l/m 0 min 0 min 164 W/m 8,4 km/h (2 Bft)
15.08.2015 12:02 22,1 C 21,7 C 78 % 0 lf 1007,5 hPa 0,0 l/m 0 min 0 min 149 W/m 8,4 km/h (2 Bft)
15.08.2015 12:05 22,1 C 21,1 C 79 % 0 lf 1007,6 hPa 0,0 l/m 0 min 0 min 116 W/m 6,3 km/h (2 Bft)
15.08.2015 12:06 22,1 C 21,1 C 79 % 0 lf 1007,5 hPa 0,0 l/m 0 min 0 min 119 W/m 6,3 km/h (2 Bft)
15.08.2015 12:08 22,2 C 21,1 C 79 % 0 lf 1007,5 hPa 0,0 l/m 0 min 0 min 111 W/m 2,1 km/h (1 Bft)
15.08.2015 12:10 22,2 C 21,1 C 78 % 0 lf 1007,6 hPa 0,0 l/m 0 min 0 min 114 W/m 2,1 km/h (1 Bft)
15.08.2015 12:12 22,2 C 21,1 C 78 % 0 lf 1007,6 hPa 0,0 l/m 0 min 0 min 121 W/m 2,1 km/h (1 Bft)
15.08.2015 12:14 22,2 C 21,1 C 78 % 0 lf 1007,6 hPa 0,0 l/m 0 min 2 min 136 W/m 2,1 km/h (1 Bft)
15.08.2015 12:16 22,2 C 20,6 C 78 % 7 lf 1007,6 hPa 0,0 l/m 0 min 2 min 131 W/m 4,2 km/h (1 Bft)
15.08.2015 12:18 22,2 C 19,4 C 79 % 15 lf 1007,6 hPa 0,0 l/m 0 min 2 min 118 W/m 4,2 km/h (1 Bft)
15.08.2015 12:20 22,2 C 18,9 C 79 % 12 lf 1007,6 hPa 0,0 l/m 0 min 2 min 118 W/m 6,3 km/h (2 Bft)
15.08.2015 12:22 22,3 C 18,9 C 80 % 1 lf 1007,6 hPa 0,0 l/m 0 min 0 min 118 W/m 4,2 km/h (1 Bft)
15.08.2015 12:24 22,2 C 18,3 C 79 % 0 lf 1007,6 hPa 0,0 l/m 0 min 0 min 116 W/m 4,2 km/h (1 Bft)
15.08.2015 12:26 22,2 C 18,3 C 79 % 0 lf 1007,6 hPa 0,0 l/m 0 min 0 min 120 W/m 6,3 km/h (2 Bft)
15.08.2015 12:28 22,2 C 18,3 C 79 % 0 lf 1007,6 hPa 0,0 l/m 0 min 0 min 125 W/m 6,3 km/h (2 Bft)
15.08.2015 12:30 22,2 C 18,9 C 79 % 0 lf 1007,6 hPa 0,0 l/m 0 min 0 min 133 W/m 4,2 km/h (1 Bft)
15.08.2015 12:32 22,2 C 18,9 C 80 % 0 lf 1007,6 hPa 0,0 l/m 0 min 0 min 154 W/m 2,1 km/h (1 Bft)
15.08.2015 12:34 22,2 C 19,4 C 81 % 0 lf 1007,7 hPa 0,0 l/m 0 min 0 min 177 W/m 2,1 km/h (1 Bft)
15.08.2015 12:36 22,2 C 20,0 C 81 % 0 lf 1007,6 hPa 0,0 l/m 0 min 0 min 192 W/m 2,1 km/h (1 Bft)
15.08.2015 12:38 22,2 C 20,6 C 80 % 0 lf 1007,7 hPa 0,0 l/m 0 min 0 min 206 W/m 4,2 km/h (1 Bft)
15.08.2015 12:40 22,3 C 20,6 C 81 % 0 lf 1007,7 hPa 0,0 l/m 0 min 0 min 214 W/m 4,2 km/h (1 Bft)
15.08.2015 12:42 22,3 C 21,1 C 81 % 0 lf 1007,7 hPa 0,0 l/m 0 min 0 min 221 W/m 4,2 km/h (1 Bft)
15.08.2015 12:44 22,3 C 21,1 C 81 % 0 lf 1007,6 hPa 0,0 l/m 0 min 0 min 228 W/m 6,3 km/h (2 Bft)
15.08.2015 12:46 22,3 C 21,1 C 80 % 0 lf 1007,6 hPa 0,0 l/m 0 min 0 min 235 W/m 2,1 km/h (1 Bft)
15.08.2015 12:48 22,3 C 21,1 C 80 % 0 lf 1007,6 hPa 0,0 l/m 0 min 0 min 245 W/m 4,2 km/h (1 Bft)
15.08.2015 12:50 22,3 C 21,7 C 80 % 0 lf 1007,6 hPa 0,0 l/m 0 min 0 min 244 W/m 4,2 km/h (1 Bft)
15.08.2015 12:52 22,3 C 21,7 C 80 % 0 lf 1007,6 hPa 0,0 l/m 0 min 0 min 235 W/m 6,3 km/h (2 Bft)
15.08.2015 12:54 22,4 C 21,7 C 81 % 0 lf 1007,6 hPa 0,0 l/m 0 min 0 min 227 W/m 4,2 km/h (1 Bft)
15.08.2015 12:56 22,4 C 21,7 C 80 % 0 lf 1007,6 hPa 0,0 l/m 0 min 0 min 219 W/m 4,2 km/h (1 Bft)
15.08.2015 12:58 22,4 C 21,7 C 80 % 0 lf 1007,6 hPa 0,0 l/m 0 min 0 min 219 W/m 6,3 km/h (2 Bft)
15.08.2015 13:00 22,4 C 21,7 C 80 % 0 lf 1007,6 hPa 0,0 l/m 0 min 0 min 238 W/m 6,3 km/h (2 Bft)
15.08.2015 13:02 22,5 C 21,7 C 80 % 0 lf 1007,6 hPa 0,0 l/m 0 min 0 min 287 W/m 6,3 km/h (2 Bft)
15.08.2015 13:04 22,5 C 21,7 C 80 % 0 lf 1007,6 hPa 0,0 l/m 0 min 0 min 260 W/m 10,5 km/h (2 Bft)
15.08.2015 13:06 22,6 C 22,2 C 80 % 0 lf 1007,7 hPa 0,0 l/m 0 min 0 min 242 W/m 10,5 km/h (2 Bft)
15.08.2015 13:08 22,6 C 21,7 C 79 % 0 lf 1007,6 hPa 0,0 l/m 0 min 0 min 237 W/m 10,5 km/h (2 Bft)
15.08.2015 13:10 22,6 C 21,7 C 79 % 0 lf 1007,6 hPa 0,0 l/m 0 min 0 min 243 W/m 10,5 km/h (2 Bft)
15.08.2015 13:12 22,6 C 21,7 C 78 % 0 lf 1007,7 hPa 0,0 l/m 0 min 0 min 243 W/m 10,5 km/h (2 Bft)
15.08.2015 13:14 22,6 C 21,7 C 78 % 0 lf 1007,7 hPa 0,0 l/m 0 min 0 min 259 W/m 6,3 km/h (2 Bft)
15.08.2015 13:16 22,7 C 22,2 C 78 % 0 lf 1007,7 hPa 0,0 l/m 0 min 0 min 292 W/m 6,3 km/h (2 Bft)
15.08.2015 13:18 22,7 C 22,2 C 78 % 0 lf 1007,6 hPa 0,0 l/m 0 min 0 min 277 W/m 6,3 km/h (2 Bft)
15.08.2015 13:20 22,7 C 22,2 C 78 % 0 lf 1007,6 hPa 0,0 l/m 0 min 0 min 272 W/m 4,2 km/h (1 Bft)
15.08.2015 13:22 22,8 C 22,8 C 78 % 0 lf 1007,7 hPa 0,0 l/m 0 min 0 min 291 W/m 6,3 km/h (2 Bft)
15.08.2015 13:24 22,8 C 22,8 C 78 % 0 lf 1007,6 hPa 0,0 l/m 0 min 0 min 313 W/m 6,3 km/h (2 Bft)
15.08.2015 13:26 22,8 C 22,8 C 78 % 0 lf 1007,6 hPa 0,0 l/m 0 min 0 min 294 W/m 8,4 km/h (2 Bft)
15.08.2015 13:28 22,9 C 22,8 C 77 % 0 lf 1007,7 hPa 0,0 l/m 0 min 0 min 259 W/m 2,1 km/h (1 Bft)
15.08.2015 13:30 22,9 C 22,8 C 77 % 0 lf 1007,6 hPa 0,0 l/m 0 min 0 min 251 W/m 2,1 km/h (1 Bft)
15.08.2015 13:32 23,0 C 22,8 C 78 % 0 lf 1007,7 hPa 0,0 l/m 0 min 0 min 259 W/m 4,2 km/h (1 Bft)
15.08.2015 13:34 23,1 C 22,8 C 77 % 0 lf 1007,7 hPa 0,0 l/m 0 min 0 min 276 W/m 4,2 km/h (1 Bft)
15.08.2015 13:36 23,1 C 22,8 C 76 % 0 lf 1007,7 hPa 0,0 l/m 0 min 0 min 270 W/m 6,3 km/h (2 Bft)
15.08.2015 13:38 23,2 C 22,8 C 77 % 0 lf 1007,7 hPa 0,0 l/m 0 min 0 min 240 W/m 8,4 km/h (2 Bft)
15.08.2015 13:40 23,2 C 22,8 C 77 % 0 lf 1007,7 hPa 0,0 l/m 0 min 0 min 203 W/m 6,3 km/h (2 Bft)
15.08.2015 13:42 23,2 C 22,2 C 77 % 0 lf 1007,7 hPa 0,0 l/m 0 min 0 min 181 W/m 4,2 km/h (1 Bft)
15.08.2015 13:44 23,3 C 22,2 C 76 % 0 lf 1007,7 hPa 0,0 l/m 0 min 0 min 173 W/m 2,1 km/h (1 Bft)
15.08.2015 13:46 23,3 C 22,2 C 77 % 0 lf 1007,8 hPa 0,0 l/m 0 min 0 min 167 W/m 6,3 km/h (2 Bft)
15.08.2015 13:48 23,3 C 22,2 C 76 % 0 lf 1007,7 hPa 0,0 l/m 0 min 0 min 136 W/m 6,3 km/h (2 Bft)
15.08.2015 13:50 23,3 C 22,2 C 75 % 0 lf 1007,8 hPa 0,0 l/m 0 min 0 min 106 W/m 4,2 km/h (1 Bft)
15.08.2015 13:52 23,3 C 21,7 C 75 % 0 lf 1007,8 hPa 0,0 l/m 0 min 0 min 91 W/m 6,3 km/h (2 Bft)
15.08.2015 13:54 23,3 C 21,7 C 75 % 0 lf 1007,9 hPa 0,0 l/m 0 min 2 min 82 W/m 10,5 km/h (2 Bft)
15.08.2015 13:56 23,2 C 21,1 C 75 % 0 lf 1007,8 hPa 0,0 l/m 0 min 2 min 80 W/m 12,6 km/h (3 Bft)
15.08.2015 13:58 23,2 C 21,1 C 75 % 0 lf 1007,9 hPa 0,0 l/m 0 min 0 min 84 W/m 8,4 km/h (2 Bft)
15.08.2015 14:00 23,2 C 21,1 C 76 % 0 lf 1007,8 hPa 0,0 l/m 0 min 0 min 89 W/m 4,2 km/h (1 Bft)
15.08.2015 14:02 23,1 C 21,1 C 76 % 0 lf 1007,9 hPa 0,0 l/m 0 min 0 min 94 W/m 4,2 km/h (1 Bft)
15.08.2015 14:04 23,1 C 21,1 C 76 % 0 lf 1007,8 hPa 0,0 l/m 0 min 0 min 105 W/m 8,4 km/h (2 Bft)
15.08.2015 14:06 23,1 C 21,1 C 76 % 0 lf 1007,8 hPa 0,0 l/m 0 min 0 min 127 W/m 14,6 km/h (3 Bft)
15.08.2015 14:08 23,0 C 21,1 C 75 % 0 lf 1007,8 hPa 0,0 l/m 0 min 0 min 157 W/m 8,4 km/h (2 Bft)
15.08.2015 14:10 22,9 C 21,1 C 76 % 0 lf 1007,8 hPa 0,0 l/m 0 min 0 min 189 W/m 8,4 km/h (2 Bft)
15.08.2015 14:12 22,9 C 21,7 C 76 % 0 lf 1007,8 hPa 0,0 l/m 0 min 0 min 223 W/m 6,3 km/h (2 Bft)
15.08.2015 14:14 22,9 C 21,7 C 75 % 0 lf 1007,8 hPa 0,0 l/m 0 min 0 min 267 W/m 8,4 km/h (2 Bft)
15.08.2015 14:16 22,9 C 22,2 C 76 % 0 lf 1007,9 hPa 0,0 l/m 0 min 0 min 335 W/m 6,3 km/h (2 Bft)
15.08.2015 14:18 22,9 C 22,8 C 76 % 0 lf 1007,8 hPa 0,0 l/m 2 min 0 min 629 W/m 8,4 km/h (2 Bft)
15.08.2015 14:20 22,9 C 23,3 C 76 % 0 lf 1007,8 hPa 0,0 l/m 2 min 0 min 474 W/m 8,4 km/h (2 Bft)
15.08.2015 14:22 23,0 C 23,3 C 76 % 0 lf 1007,9 hPa 0,0 l/m 2 min 0 min 383 W/m 12,6 km/h (3 Bft)
15.08.2015 14:24 23,0 C 23,9 C 75 % 0 lf 1008,0 hPa 0,0 l/m 2 min 0 min 432 W/m 8,4 km/h (2 Bft)
15.08.2015 14:26 23,1 C 23,9 C 77 % 0 lf 1007,9 hPa 0,0 l/m 2 min 0 min 448 W/m 6,3 km/h (2 Bft)
15.08.2015 14:28 23,2 C 23,9 C 76 % 0 lf 1007,9 hPa 0,0 l/m 0 min 0 min 356 W/m 12,6 km/h (3 Bft)
15.08.2015 14:30 23,3 C 23,9 C 75 % 0 lf 1007,9 hPa 0,0 l/m 0 min 0 min 323 W/m 16,7 km/h (3 Bft)
15.08.2015 14:32 23,4 C 23,9 C 73 % 0 lf 1007,9 hPa 0,0 l/m 0 min 0 min 289 W/m 12,6 km/h (3 Bft)
15.08.2015 14:34 23,4 C 23,3 C 73 % 0 lf 1007,9 hPa 0,0 l/m 0 min 0 min 268 W/m 16,7 km/h (3 Bft)
15.08.2015 14:36 23,4 C 23,3 C 73 % 0 lf 1007,8 hPa 0,0 l/m 0 min 0 min 266 W/m 14,6 km/h (3 Bft)
15.08.2015 14:38 23,5 C 23,3 C 73 % 0 lf 1007,8 hPa 0,0 l/m 0 min 0 min 269 W/m 10,5 km/h (2 Bft)
15.08.2015 14:40 23,6 C 23,3 C 73 % 0 lf 1007,9 hPa 0,0 l/m 0 min 0 min 269 W/m 10,5 km/h (2 Bft)
15.08.2015 14:42 23,6 C 23,3 C 72 % 0 lf 1007,8 hPa 0,0 l/m 0 min 0 min 265 W/m 10,5 km/h (2 Bft)
15.08.2015 14:44 23,7 C 23,3 C 73 % 0 lf 1007,8 hPa 0,0 l/m 0 min 0 min 262 W/m 10,5 km/h (2 Bft)
15.08.2015 14:46 23,7 C 23,3 C 74 % 0 lf 1007,9 hPa 0,0 l/m 0 min 0 min 263 W/m 4,2 km/h (1 Bft)
15.08.2015 14:48 23,7 C 23,3 C 74 % 0 lf 1007,8 hPa 0,0 l/m 0 min 0 min 286 W/m 8,4 km/h (2 Bft)
15.08.2015 14:50 23,7 C 23,3 C 72 % 0 lf 1007,8 hPa 0,0 l/m 0 min 0 min 265 W/m 8,4 km/h (2 Bft)
15.08.2015 14:52 23,8 C 23,3 C 72 % 0 lf 1007,8 hPa 0,0 l/m 0 min 0 min 227 W/m 10,5 km/h (2 Bft)
15.08.2015 14:54 23,8 C 22,8 C 72 % 0 lf 1007,9 hPa 0,0 l/m 0 min 0 min 201 W/m 8,4 km/h (2 Bft)
15.08.2015 14:56 23,8 C 22,8 C 73 % 0 lf 1007,9 hPa 0,0 l/m 0 min 0 min 191 W/m 10,5 km/h (2 Bft)
15.08.2015 14:58 23,8 C 22,8 C 72 % 0 lf 1007,9 hPa 0,0 l/m 0 min 0 min 196 W/m 12,6 km/h (3 Bft)
15.08.2015 15:00 23,8 C 22,8 C 72 % 0 lf 1007,8 hPa 0,0 l/m 0 min 0 min 200 W/m 10,5 km/h (2 Bft)
15.08.2015 15:02 23,8 C 22,8 C 72 % 0 lf 1007,8 hPa 0,0 l/m 0 min 0 min 193 W/m 14,6 km/h (3 Bft)
15.08.2015 15:04 23,8 C 22,8 C 72 % 0 lf 1007,9 hPa 0,0 l/m 0 min 0 min 170 W/m 10,5 km/h (2 Bft)
15.08.2015 15:06 23,7 C 22,2 C 73 % 0 lf 1007,9 hPa 0,0 l/m 0 min 0 min 156 W/m 12,6 km/h (3 Bft)
15.08.2015 15:08 23,7 C 21,7 C 73 % 0 lf 1007,9 hPa 0,0 l/m 0 min 0 min 153 W/m 10,5 km/h (2 Bft)
15.08.2015 15:10 23,7 C 21,7 C 74 % 0 lf 1007,9 hPa 0,0 l/m 0 min 0 min 158 W/m 12,6 km/h (3 Bft)
15.08.2015 15:12 23,7 C 21,7 C 74 % 0 lf 1007,9 hPa 0,0 l/m 0 min 0 min 172 W/m 14,6 km/h (3 Bft)
15.08.2015 15:14 23,6 C 21,7 C 74 % 0 lf 1007,9 hPa 0,0 l/m 0 min 0 min 173 W/m 12,6 km/h (3 Bft)
15.08.2015 15:16 23,6 C 21,7 C 74 % 0 lf 1007,9 hPa 0,0 l/m 0 min 0 min 155 W/m 6,3 km/h (2 Bft)
15.08.2015 15:18 23,5 C 21,7 C 75 % 0 lf 1007,9 hPa 0,0 l/m 0 min 0 min 131 W/m 8,4 km/h (2 Bft)
15.08.2015 15:20 23,4 C 21,1 C 75 % 0 lf 1007,9 hPa 0,0 l/m 0 min 0 min 123 W/m 8,4 km/h (2 Bft)
15.08.2015 15:22 23,4 C 21,1 C 76 % 0 lf 1007,9 hPa 0,0 l/m 0 min 0 min 120 W/m 10,5 km/h (2 Bft)
15.08.2015 15:24 23,3 C 21,1 C 76 % 0 lf 1007,9 hPa 0,0 l/m 0 min 0 min 117 W/m 12,6 km/h (3 Bft)
15.08.2015 15:26 23,3 C 21,1 C 76 % 0 lf 1008,0 hPa 0,0 l/m 0 min 0 min 114 W/m 10,5 km/h (2 Bft)
15.08.2015 15:28 23,2 C 20,6 C 76 % 1 lf 1008,0 hPa 0,0 l/m 0 min 0 min 113 W/m 8,4 km/h (2 Bft)
15.08.2015 15:30 23,2 C 20,6 C 76 % 0 lf 1008,0 hPa 0,0 l/m 0 min 0 min 116 W/m 8,4 km/h (2 Bft)
15.08.2015 15:32 23,1 C 20,6 C 76 % 0 lf 1007,9 hPa 0,0 l/m 0 min 0 min 120 W/m 6,3 km/h (2 Bft)
15.08.2015 15:34 23,0 C 20,6 C 77 % 0 lf 1008,0 hPa 0,0 l/m 0 min 0 min 121 W/m 10,5 km/h (2 Bft)
15.08.2015 15:36 22,9 C 20,6 C 77 % 0 lf 1007,9 hPa 0,0 l/m 0 min 0 min 122 W/m 10,5 km/h (2 Bft)
15.08.2015 15:38 22,9 C 20,6 C 78 % 0 lf 1007,9 hPa 0,0 l/m 0 min 0 min 126 W/m 8,4 km/h (2 Bft)
15.08.2015 15:40 22,9 C 20,6 C 78 % 0 lf 1007,9 hPa 0,0 l/m 0 min 0 min 130 W/m 8,4 km/h (2 Bft)
15.08.2015 15:42 22,8 C 20,6 C 79 % 0 lf 1007,9 hPa 0,0 l/m 0 min 0 min 136 W/m 8,4 km/h (2 Bft)
15.08.2015 15:44 22,8 C 20,6 C 79 % 0 lf 1008,0 hPa 0,0 l/m 0 min 0 min 142 W/m 10,5 km/h (2 Bft)
15.08.2015 15:46 22,7 C 20,6 C 79 % 0 lf 1008,0 hPa 0,0 l/m 0 min 0 min 147 W/m 10,5 km/h (2 Bft)
15.08.2015 15:48 22,7 C 20,6 C 79 % 0 lf 1008,0 hPa 0,0 l/m 0 min 2 min 157 W/m 8,4 km/h (2 Bft)
15.08.2015 15:50 22,6 C 21,1 C 79 % 0 lf 1008,0 hPa 0,0 l/m 0 min 0 min 167 W/m 8,4 km/h (2 Bft)
15.08.2015 15:52 22,6 C 21,1 C 80 % 0 lf 1007,9 hPa 0,0 l/m 0 min 0 min 171 W/m 4,2 km/h (1 Bft)
15.08.2015 15:54 22,6 C 21,1 C 81 % 0 lf 1007,9 hPa 0,0 l/m 0 min 2 min 164 W/m 8,4 km/h (2 Bft)
15.08.2015 15:56 22,6 C 20,6 C 80 % 0 lf 1007,9 hPa 0,0 l/m 0 min 0 min 154 W/m 6,3 km/h (2 Bft)
15.08.2015 15:58 22,6 C 20,6 C 80 % 0 lf 1007,9 hPa 0,0 l/m 0 min 0 min 148 W/m 6,3 km/h (2 Bft)
15.08.2015 16:00 22,5 C 21,1 C 81 % 0 lf 1007,9 hPa 0,0 l/m 0 min 0 min 148 W/m 8,4 km/h (2 Bft)
15.08.2015 16:02 22,5 C 21,1 C 81 % 0 lf 1008,0 hPa 0,0 l/m 0 min 0 min 148 W/m 10,5 km/h (2 Bft)
15.08.2015 16:04 22,4 C 21,1 C 81 % 0 lf 1008,0 hPa 0,0 l/m 0 min 0 min 144 W/m 10,5 km/h (2 Bft)
15.08.2015 16:06 22,4 C 21,1 C 81 % 0 lf 1007,9 hPa 0,0 l/m 0 min 0 min 136 W/m 8,4 km/h (2 Bft)
15.08.2015 16:08 22,4 C 21,1 C 81 % 0 lf 1008,0 hPa 0,0 l/m 0 min 0 min 126 W/m 6,3 km/h (2 Bft)
15.08.2015 16:10 22,4 C 21,1 C 80 % 0 lf 1008,0 hPa 0,0 l/m 0 min 0 min 122 W/m 6,3 km/h (2 Bft)
15.08.2015 16:12 22,4 C 21,1 C 80 % 0 lf 1008,0 hPa 0,0 l/m 0 min 0 min 120 W/m 6,3 km/h (2 Bft)
15.08.2015 16:14 22,4 C 21,1 C 80 % 0 lf 1007,9 hPa 0,0 l/m 0 min 0 min 120 W/m 4,2 km/h (1 Bft)
15.08.2015 16:16 22,4 C 21,1 C 80 % 0 lf 1008,0 hPa 0,0 l/m 0 min 0 min 123 W/m 4,2 km/h (1 Bft)
15.08.2015 16:18 22,4 C 21,1 C 80 % 0 lf 1008,0 hPa 0,0 l/m 0 min 0 min 126 W/m 4,2 km/h (1 Bft)
15.08.2015 16:20 22,4 C 21,1 C 80 % 0 lf 1008,0 hPa 0,0 l/m 0 min 0 min 128 W/m 4,2 km/h (1 Bft)
15.08.2015 16:22 22,3 C 21,1 C 81 % 0 lf 1008,0 hPa 0,0 l/m 0 min 0 min 134 W/m 6,3 km/h (2 Bft)
15.08.2015 16:24 22,4 C 21,1 C 81 % 0 lf 1008,0 hPa 0,0 l/m 0 min 0 min 144 W/m 6,3 km/h (2 Bft)
15.08.2015 16:26 22,4 C 21,1 C 81 % 0 lf 1008,0 hPa 0,0 l/m 0 min 0 min 155 W/m 6,3 km/h (2 Bft)
15.08.2015 16:28 22,4 C 21,1 C 81 % 0 lf 1008,0 hPa 0,0 l/m 0 min 0 min 156 W/m 8,4 km/h (2 Bft)
15.08.2015 16:30 22,4 C 21,1 C 81 % 0 lf 1008,0 hPa 0,0 l/m 0 min 0 min 146 W/m 6,3 km/h (2 Bft)
15.08.2015 16:32 22,4 C 21,1 C 81 % 0 lf 1008,0 hPa 0,0 l/m 0 min 0 min 128 W/m 4,2 km/h (1 Bft)
15.08.2015 16:34 22,4 C 21,1 C 81 % 0 lf 1008,0 hPa 0,0 l/m 0 min 0 min 116 W/m 6,3 km/h (2 Bft)
15.08.2015 16:36 22,4 C 21,1 C 80 % 0 lf 1008,0 hPa 0,0 l/m 0 min 0 min 110 W/m 4,2 km/h (1 Bft)
15.08.2015 16:38 22,4 C 21,1 C 80 % 0 lf 1008,0 hPa 0,0 l/m 0 min 0 min 109 W/m 8,4 km/h (2 Bft)
15.08.2015 16:40 22,4 C 21,1 C 81 % 0 lf 1008,1 hPa 0,0 l/m 0 min 0 min 111 W/m 6,3 km/h (2 Bft)
15.08.2015 16:42 22,4 C 21,1 C 81 % 0 lf 1008,0 hPa 0,0 l/m 0 min 0 min 114 W/m 6,3 km/h (2 Bft)
15.08.2015 16:44 22,4 C 21,1 C 81 % 0 lf 1008,0 hPa 0,0 l/m 0 min 0 min 118 W/m 4,2 km/h (1 Bft)
15.08.2015 16:46 22,4 C 21,1 C 81 % 0 lf 1008,0 hPa 0,0 l/m 0 min 0 min 129 W/m 6,3 km/h (2 Bft)
15.08.2015 16:48 22,4 C 21,1 C 81 % 0 lf 1008,0 hPa 0,0 l/m 0 min 0 min 147 W/m 4,2 km/h (1 Bft)
15.08.2015 16:50 22,4 C 21,1 C 81 % 0 lf 1008,0 hPa 0,0 l/m 0 min 0 min 158 W/m 4,2 km/h (1 Bft)
15.08.2015 16:52 22,4 C 21,1 C 80 % 0 lf 1008,0 hPa 0,0 l/m 0 min 0 min 154 W/m 4,2 km/h (1 Bft)
15.08.2015 16:54 22,4 C 21,1 C 80 % 0 lf 1008,0 hPa 0,0 l/m 0 min 0 min 139 W/m 4,2 km/h (1 Bft)
15.08.2015 16:56 22,4 C 21,1 C 80 % 0 lf 1008,0 hPa 0,0 l/m 0 min 0 min 127 W/m 6,3 km/h (2 Bft)
15.08.2015 16:58 22,4 C 21,1 C 80 % 0 lf 1008,0 hPa 0,0 l/m 0 min 0 min 117 W/m 4,2 km/h (1 Bft)
15.08.2015 17:00 22,4 C 21,1 C 80 % 0 lf 1008,0 hPa 0,0 l/m 0 min 0 min 107 W/m 4,2 km/h (1 Bft)
15.08.2015 17:02 22,4 C 21,1 C 80 % 0 lf 1008,0 hPa 0,0 l/m 0 min 0 min 97 W/m 6,3 km/h (2 Bft)
15.08.2015 17:04 22,4 C 21,1 C 80 % 0 lf 1008,0 hPa 0,0 l/m 0 min 0 min 91 W/m 8,4 km/h (2 Bft)
15.08.2015 17:06 22,4 C 21,1 C 80 % 0 lf 1008,1 hPa 0,0 l/m 0 min 0 min 88 W/m 10,5 km/h (2 Bft)
15.08.2015 17:08 22,4 C 21,1 C 79 % 0 lf 1008,1 hPa 0,0 l/m 0 min 0 min 88 W/m 8,4 km/h (2 Bft)
15.08.2015 17:10 22,4 C 20,6 C 79 % 0 lf 1008,1 hPa 0,0 l/m 0 min 0 min 84 W/m 12,6 km/h (3 Bft)
15.08.2015 17:12 22,3 C 20,6 C 79 % 0 lf 1008,1 hPa 0,0 l/m 0 min 0 min 82 W/m 8,4 km/h (2 Bft)
15.08.2015 17:14 22,3 C 20,6 C 79 % 0 lf 1008,2 hPa 0,0 l/m 0 min 0 min 79 W/m 8,4 km/h (2 Bft)
15.08.2015 17:16 22,3 C 20,6 C 79 % 0 lf 1008,2 hPa 0,0 l/m 0 min 0 min 77 W/m 10,5 km/h (2 Bft)
15.08.2015 17:18 22,3 C 20,6 C 79 % 14 lf 1008,2 hPa 0,0 l/m 0 min 2 min 77 W/m 10,5 km/h (2 Bft)
15.08.2015 17:20 22,2 C 20,0 C 79 % 15 lf 1008,3 hPa 0,0 l/m 0 min 2 min 77 W/m 14,6 km/h (3 Bft)
15.08.2015 17:22 22,2 C 18,9 C 80 % 15 lf 1008,3 hPa 0,0 l/m 0 min 2 min 77 W/m 14,6 km/h (3 Bft)
15.08.2015 17:24 22,2 C 18,9 C 80 % 15 lf 1008,4 hPa 0,0 l/m 0 min 2 min 80 W/m 10,5 km/h (2 Bft)
15.08.2015 17:26 22,1 C 18,3 C 80 % 15 lf 1008,4 hPa 0,0 l/m 0 min 2 min 87 W/m 16,7 km/h (3 Bft)
15.08.2015 17:28 22,1 C 18,3 C 81 % 15 lf 1008,4 hPa 0,0 l/m 0 min 2 min 97 W/m 14,6 km/h (3 Bft)
15.08.2015 17:30 22,0 C 18,9 C 81 % 12 lf 1008,5 hPa 0,0 l/m 0 min 2 min 107 W/m 14,6 km/h (3 Bft)
15.08.2015 17:32 21,9 C 18,3 C 82 % 4 lf 1008,5 hPa 0,0 l/m 0 min 2 min 111 W/m 18,8 km/h (3 Bft)
15.08.2015 17:34 21,8 C 18,3 C 82 % 2 lf 1008,5 hPa 0,0 l/m 0 min 0 min 108 W/m 20,9 km/h (4 Bft)
15.08.2015 17:36 21,6 C 18,3 C 82 % 3 lf 1008,5 hPa 0,0 l/m 0 min 2 min 101 W/m 16,7 km/h (3 Bft)
15.08.2015 17:38 21,6 C 18,3 C 82 % 1 lf 1008,6 hPa 0,0 l/m 0 min 2 min 90 W/m 16,7 km/h (3 Bft)
15.08.2015 17:40 21,4 C 18,3 C 83 % 3 lf 1008,5 hPa 0,0 l/m 0 min 2 min 81 W/m 14,6 km/h (3 Bft)
15.08.2015 17:42 21,3 C 18,3 C 83 % 2 lf 1008,5 hPa 0,0 l/m 0 min 2 min 77 W/m 14,6 km/h (3 Bft)
15.08.2015 17:44 21,2 C 18,3 C 83 % 4 lf 1008,5 hPa 0,0 l/m 0 min 2 min 80 W/m 14,6 km/h (3 Bft)
15.08.2015 17:46 21,1 C 18,3 C 84 % 9 lf 1008,6 hPa 0,0 l/m 0 min 2 min 86 W/m 10,5 km/h (2 Bft)
15.08.2015 17:48 21,1 C 18,3 C 84 % 9 lf 1008,6 hPa 0,0 l/m 0 min 2 min 89 W/m 12,6 km/h (3 Bft)
15.08.2015 17:50 21,0 C 18,3 C 85 % 15 lf 1008,6 hPa 0,0 l/m 0 min 2 min 92 W/m 12,6 km/h (3 Bft)
15.08.2015 17:52 20,9 C 17,8 C 85 % 15 lf 1008,7 hPa 0,0 l/m 0 min 2 min 100 W/m 12,6 km/h (3 Bft)
15.08.2015 17:54 20,9 C 17,8 C 85 % 15 lf 1008,7 hPa 0,0 l/m 0 min 2 min 110 W/m 14,6 km/h (3 Bft)
15.08.2015 17:56 20,8 C 17,8 C 86 % 15 lf 1008,7 hPa 0,2 l/m 0 min 2 min 115 W/m 10,5 km/h (2 Bft)
15.08.2015 17:58 20,8 C 17,8 C 86 % 15 lf 1008,7 hPa 0,0 l/m 0 min 2 min 115 W/m 8,4 km/h (2 Bft)
15.08.2015 18:00 20,8 C 17,8 C 87 % 15 lf 1008,7 hPa 0,0 l/m 0 min 2 min 106 W/m 10,5 km/h (2 Bft)
15.08.2015 18:02 20,7 C 17,8 C 87 % 15 lf 1008,7 hPa 0,0 l/m 0 min 2 min 91 W/m 12,6 km/h (3 Bft)
15.08.2015 18:05 20,7 C 17,8 C 88 % 15 lf 1008,7 hPa 0,0 l/m 0 min 2 min 95 W/m 8,4 km/h (2 Bft)
15.08.2015 18:06 20,7 C 17,8 C 88 % 15 lf 1008,7 hPa 0,0 l/m 0 min 1 min 90 W/m 12,6 km/h (3 Bft)
15.08.2015 18:08 20,6 C 17,8 C 88 % 15 lf 1008,7 hPa 0,0 l/m 0 min 2 min 99 W/m 10,5 km/h (2 Bft)
15.08.2015 18:10 20,6 C 17,8 C 88 % 15 lf 1008,7 hPa 0,0 l/m 0 min 2 min 102 W/m 14,6 km/h (3 Bft)
15.08.2015 18:12 20,6 C 17,8 C 88 % 15 lf 1008,7 hPa 0,0 l/m 0 min 2 min 100 W/m 14,6 km/h (3 Bft)
15.08.2015 18:14 20,5 C 17,8 C 89 % 15 lf 1008,8 hPa 0,0 l/m 0 min 2 min 95 W/m 12,6 km/h (3 Bft)
15.08.2015 18:16 20,4 C 17,8 C 89 % 15 lf 1008,8 hPa 0,0 l/m 0 min 2 min 83 W/m 8,4 km/h (2 Bft)
15.08.2015 18:18 20,4 C 17,8 C 89 % 15 lf 1008,8 hPa 0,2 l/m 0 min 2 min 70 W/m 12,6 km/h (3 Bft)
15.08.2015 18:20 20,4 C 17,8 C 89 % 15 lf 1008,8 hPa 0,0 l/m 0 min 2 min 62 W/m 12,6 km/h (3 Bft)
15.08.2015 18:22 20,3 C 17,8 C 89 % 15 lf 1008,8 hPa 0,2 l/m 0 min 2 min 57 W/m 10,5 km/h (2 Bft)
15.08.2015 18:24 20,3 C 17,8 C 90 % 15 lf 1008,8 hPa 0,0 l/m 0 min 2 min 54 W/m 18,8 km/h (3 Bft)
15.08.2015 18:26 20,3 C 17,8 C 89 % 15 lf 1008,8 hPa 0,2 l/m 0 min 2 min 52 W/m 14,6 km/h (3 Bft)
15.08.2015 18:28 20,2 C 17,8 C 90 % 15 lf 1008,8 hPa 0,0 l/m 0 min 2 min 49 W/m 12,6 km/h (3 Bft)
15.08.2015 18:30 20,2 C 17,8 C 90 % 15 lf 1008,8 hPa 0,2 l/m 0 min 2 min 47 W/m 14,6 km/h (3 Bft)
15.08.2015 18:32 20,2 C 17,8 C 90 % 15 lf 1008,8 hPa 0,0 l/m 0 min 2 min 50 W/m 12,6 km/h (3 Bft)
15.08.2015 18:34 20,2 C 17,8 C 90 % 15 lf 1008,8 hPa 0,0 l/m 0 min 2 min 50 W/m 16,7 km/h (3 Bft)
15.08.2015 18:36 20,1 C 17,8 C 90 % 15 lf 1008,8 hPa 0,0 l/m 0 min 2 min 47 W/m 14,6 km/h (3 Bft)
15.08.2015 18:38 20,1 C 17,8 C 91 % 15 lf 1008,8 hPa 0,0 l/m 0 min 0 min 42 W/m 16,7 km/h (3 Bft)
15.08.2015 18:40 20,0 C 17,8 C 91 % 15 lf 1008,9 hPa 0,0 l/m 0 min 2 min 39 W/m 16,7 km/h (3 Bft)
15.08.2015 18:42 19,9 C 17,2 C 91 % 15 lf 1008,8 hPa 0,0 l/m 0 min 2 min 36 W/m 8,4 km/h (2 Bft)
15.08.2015 18:44 19,9 C 17,8 C 91 % 15 lf 1008,9 hPa 0,0 l/m 0 min 2 min 31 W/m 10,5 km/h (2 Bft)
15.08.2015 18:46 19,9 C 17,2 C 91 % 15 lf 1008,8 hPa 0,0 l/m 0 min 2 min 27 W/m 10,5 km/h (2 Bft)
15.08.2015 18:48 19,8 C 17,8 C 91 % 15 lf 1008,9 hPa 0,0 l/m 0 min 2 min 30 W/m 14,6 km/h (3 Bft)
15.08.2015 18:50 19,8 C 17,2 C 91 % 15 lf 1008,9 hPa 0,2 l/m 0 min 2 min 42 W/m 18,8 km/h (3 Bft)
15.08.2015 18:52 19,7 C 17,2 C 91 % 15 lf 1008,9 hPa 0,0 l/m 0 min 2 min 56 W/m 27,2 km/h (4 Bft)
15.08.2015 18:54 19,6 C 16,7 C 91 % 15 lf 1008,9 hPa 0,0 l/m 0 min 0 min 63 W/m 23,0 km/h (4 Bft)
15.08.2015 18:56 19,4 C 16,7 C 91 % 15 lf 1008,8 hPa 0,0 l/m 0 min 0 min 66 W/m 20,9 km/h (4 Bft)
15.08.2015 18:58 19,4 C 16,7 C 91 % 15 lf 1008,9 hPa 0,0 l/m 0 min 0 min 68 W/m 20,9 km/h (4 Bft)
15.08.2015 19:00 19,3 C 16,7 C 91 % 15 lf 1008,9 hPa 0,0 l/m 0 min 0 min 63 W/m 14,6 km/h (3 Bft)
15.08.2015 19:02 19,2 C 16,7 C 91 % 15 lf 1008,9 hPa 0,0 l/m 0 min 0 min 60 W/m 23,0 km/h (4 Bft)
15.08.2015 19:04 19,2 C 16,7 C 91 % 15 lf 1008,9 hPa 0,0 l/m 0 min 0 min 54 W/m 20,9 km/h (4 Bft)
15.08.2015 19:06 19,1 C 16,7 C 91 % 15 lf 1009,0 hPa 0,0 l/m 0 min 0 min 48 W/m 16,7 km/h (3 Bft)
15.08.2015 19:08 19,1 C 16,7 C 91 % 15 lf 1009,0 hPa 0,0 l/m 0 min 0 min 42 W/m 16,7 km/h (3 Bft)
15.08.2015 19:10 18,9 C 16,7 C 92 % 15 lf 1009,0 hPa 0,0 l/m 0 min 0 min 40 W/m 14,6 km/h (3 Bft)
15.08.2015 19:12 18,9 C 16,7 C 92 % 15 lf 1009,0 hPa 0,0 l/m 0 min 0 min 44 W/m 20,9 km/h (4 Bft)
15.08.2015 19:14 18,9 C 16,7 C 92 % 15 lf 1009,0 hPa 0,0 l/m 0 min 0 min 49 W/m 23,0 km/h (4 Bft)
15.08.2015 19:16 18,8 C 16,7 C 92 % 15 lf 1009,0 hPa 0,0 l/m 0 min 0 min 46 W/m 23,0 km/h (4 Bft)
15.08.2015 19:18 18,7 C 16,7 C 92 % 15 lf 1009,1 hPa 0,0 l/m 0 min 0 min 45 W/m 14,6 km/h (3 Bft)
15.08.2015 19:20 18,7 C 16,7 C 92 % 15 lf 1009,1 hPa 0,0 l/m 0 min 0 min 42 W/m 18,8 km/h (3 Bft)
15.08.2015 19:22 18,7 C 16,7 C 92 % 15 lf 1009,2 hPa 0,0 l/m 0 min 0 min 36 W/m 18,8 km/h (3 Bft)
15.08.2015 19:24 18,6 C 16,7 C 92 % 15 lf 1009,2 hPa 0,0 l/m 0 min 0 min 34 W/m 23,0 km/h (4 Bft)
15.08.2015 19:26 18,6 C 16,7 C 93 % 15 lf 1009,3 hPa 0,0 l/m 0 min 0 min 33 W/m 25,1 km/h (4 Bft)
15.08.2015 19:28 18,5 C 16,7 C 93 % 15 lf 1009,2 hPa 0,0 l/m 0 min 0 min 33 W/m 12,6 km/h (3 Bft)
15.08.2015 19:30 18,4 C 16,7 C 93 % 15 lf 1009,3 hPa 0,0 l/m 0 min 0 min 34 W/m 14,6 km/h (3 Bft)
15.08.2015 19:32 18,4 C 16,7 C 93 % 15 lf 1009,3 hPa 0,0 l/m 0 min 0 min 38 W/m 23,0 km/h (4 Bft)
15.08.2015 19:34 18,4 C 16,7 C 93 % 15 lf 1009,3 hPa 0,0 l/m 0 min 0 min 40 W/m 16,7 km/h (3 Bft)
15.08.2015 19:36 18,3 C 16,7 C 93 % 15 lf 1009,3 hPa 0,0 l/m 0 min 0 min 43 W/m 20,9 km/h (4 Bft)
15.08.2015 19:38 18,3 C 16,1 C 93 % 15 lf 1009,3 hPa 0,0 l/m 0 min 0 min 44 W/m 20,9 km/h (4 Bft)
15.08.2015 19:40 18,3 C 16,1 C 93 % 15 lf 1009,3 hPa 0,0 l/m 0 min 0 min 39 W/m 14,6 km/h (3 Bft)
15.08.2015 19:42 18,2 C 16,1 C 93 % 15 lf 1009,4 hPa 0,0 l/m 0 min 0 min 33 W/m 16,7 km/h (3 Bft)
15.08.2015 19:44 18,2 C 16,7 C 93 % 15 lf 1009,4 hPa 0,0 l/m 0 min 0 min 28 W/m 14,6 km/h (3 Bft)
15.08.2015 19:46 18,2 C 16,7 C 93 % 15 lf 1009,4 hPa 0,0 l/m 0 min 0 min 25 W/m 23,0 km/h (4 Bft)
15.08.2015 19:48 18,2 C 16,1 C 93 % 15 lf 1009,4 hPa 0,0 l/m 0 min 0 min 25 W/m 18,8 km/h (3 Bft)
15.08.2015 19:50 18,2 C 16,1 C 94 % 15 lf 1009,4 hPa 0,0 l/m 0 min 0 min 24 W/m 20,9 km/h (4 Bft)
15.08.2015 19:52 18,1 C 16,1 C 93 % 15 lf 1009,4 hPa 0,0 l/m 0 min 0 min 21 W/m 20,9 km/h (4 Bft)
15.08.2015 19:54 18,1 C 16,1 C 93 % 15 lf 1009,5 hPa 0,0 l/m 0 min 0 min 18 W/m 18,8 km/h (3 Bft)
15.08.2015 19:56 18,1 C 16,1 C 94 % 15 lf 1009,5 hPa 0,0 l/m 0 min 0 min 17 W/m 25,1 km/h (4 Bft)
15.08.2015 19:58 18,1 C 16,1 C 94 % 15 lf 1009,5 hPa 0,0 l/m 0 min 0 min 16 W/m 16,7 km/h (3 Bft)
15.08.2015 20:00 18,1 C 16,1 C 94 % 15 lf 1009,5 hPa 0,0 l/m 0 min 0 min 16 W/m 18,8 km/h (3 Bft)
15.08.2015 20:02 18,0 C 16,1 C 94 % 15 lf 1009,6 hPa 0,0 l/m 0 min 0 min 12 W/m 14,6 km/h (3 Bft)
15.08.2015 20:04 18,0 C 16,1 C 94 % 15 lf 1009,6 hPa 0,0 l/m 0 min 0 min 10 W/m 25,1 km/h (4 Bft)
15.08.2015 20:06 18,0 C 16,1 C 94 % 15 lf 1009,7 hPa 0,0 l/m 0 min 0 min 11 W/m 14,6 km/h (3 Bft)
15.08.2015 20:08 17,9 C 16,1 C 94 % 15 lf 1009,7 hPa 0,0 l/m 0 min 0 min 10 W/m 12,6 km/h (3 Bft)
15.08.2015 20:10 17,9 C 16,1 C 94 % 15 lf 1009,7 hPa 0,0 l/m 0 min 2 min 9 W/m 31,4 km/h (5 Bft)
15.08.2015 20:12 17,9 C 16,1 C 94 % 15 lf 1009,8 hPa 0,0 l/m 0 min 0 min 10 W/m 20,9 km/h (4 Bft)
15.08.2015 20:14 17,9 C 16,1 C 94 % 15 lf 1009,8 hPa 0,0 l/m 0 min 0 min 7 W/m 16,7 km/h (3 Bft)
15.08.2015 20:16 17,9 C 16,1 C 94 % 15 lf 1009,8 hPa 0,0 l/m 0 min 0 min 6 W/m 27,2 km/h (4 Bft)
15.08.2015 20:18 17,9 C 16,1 C 94 % 15 lf 1009,8 hPa 0,0 l/m 0 min 0 min 5 W/m 20,9 km/h (4 Bft)
15.08.2015 20:20 17,8 C 16,1 C 94 % 15 lf 1009,9 hPa 0,0 l/m 0 min 0 min 6 W/m 18,8 km/h (3 Bft)
15.08.2015 20:22 17,8 C 16,1 C 94 % 15 lf 1009,9 hPa 0,0 l/m 0 min 0 min 8 W/m 18,8 km/h (3 Bft)
15.08.2015 20:24 17,8 C 16,1 C 94 % 15 lf 1009,9 hPa 0,0 l/m 0 min 0 min 8 W/m 20,9 km/h (4 Bft)
15.08.2015 20:26 17,7 C 16,1 C 94 % 15 lf 1010,0 hPa 0,0 l/m 0 min 0 min 7 W/m 25,1 km/h (4 Bft)
15.08.2015 20:28 17,7 C 16,1 C 94 % 15 lf 1010,0 hPa 0,0 l/m 0 min 0 min 10 W/m 20,9 km/h (4 Bft)
15.08.2015 20:30 17,7 C 16,1 C 94 % 15 lf 1010,0 hPa 0,0 l/m 0 min 2 min 9 W/m 27,2 km/h (4 Bft)
15.08.2015 20:32 17,7 C 16,1 C 94 % 15 lf 1010,1 hPa 0,0 l/m 0 min 0 min 5 W/m 16,7 km/h (3 Bft)
15.08.2015 20:34 17,7 C 16,1 C 95 % 15 lf 1010,2 hPa 0,0 l/m 0 min 0 min 4 W/m 14,6 km/h (3 Bft)
15.08.2015 20:36 17,6 C 16,1 C 95 % 15 lf 1010,1 hPa 0,0 l/m 0 min 0 min 0 W/m 14,6 km/h (3 Bft)
15.08.2015 20:38 17,6 C 16,1 C 95 % 15 lf 1010,2 hPa 0,0 l/m 0 min 0 min 0 W/m 16,7 km/h (3 Bft)
15.08.2015 20:40 17,6 C 16,1 C 95 % 15 lf 1010,3 hPa 0,0 l/m 0 min 0 min 0 W/m 14,6 km/h (3 Bft)
15.08.2015 20:42 17,6 C 16,1 C 95 % 15 lf 1010,3 hPa 0,0 l/m 0 min 0 min 0 W/m 14,6 km/h (3 Bft)
15.08.2015 20:44 17,6 C 16,1 C 95 % 15 lf 1010,2 hPa 0,0 l/m 0 min 0 min 0 W/m 16,7 km/h (3 Bft)
15.08.2015 20:46 17,6 C 16,1 C 95 % 15 lf 1010,3 hPa 0,0 l/m 0 min 0 min 0 W/m 14,6 km/h (3 Bft)
15.08.2015 20:48 17,6 C 16,1 C 95 % 15 lf 1010,4 hPa 0,0 l/m 0 min 0 min 0 W/m 18,8 km/h (3 Bft)
15.08.2015 20:50 17,5 C 16,1 C 95 % 15 lf 1010,4 hPa 0,0 l/m 0 min 0 min 0 W/m 18,8 km/h (3 Bft)
15.08.2015 20:52 17,5 C 16,1 C 95 % 15 lf 1010,4 hPa 0,0 l/m 0 min 0 min 0 W/m 16,7 km/h (3 Bft)
15.08.2015 20:54 17,5 C 16,1 C 95 % 15 lf 1010,5 hPa 0,0 l/m 0 min 0 min 0 W/m 20,9 km/h (4 Bft)
15.08.2015 20:56 17,5 C 16,1 C 95 % 15 lf 1010,5 hPa 0,0 l/m 0 min 0 min 0 W/m 18,8 km/h (3 Bft)
15.08.2015 20:58 17,4 C 15,6 C 95 % 15 lf 1010,5 hPa 0,0 l/m 0 min 0 min 0 W/m 20,9 km/h (4 Bft)
15.08.2015 21:00 17,4 C 15,6 C 95 % 15 lf 1010,4 hPa 0,0 l/m 0 min 0 min 0 W/m 16,7 km/h (3 Bft)
15.08.2015 21:02 17,4 C 15,6 C 95 % 15 lf 1010,5 hPa 0,0 l/m 0 min 0 min 0 W/m 18,8 km/h (3 Bft)
15.08.2015 21:04 17,4 C 15,6 C 95 % 15 lf 1010,6 hPa 0,0 l/m 0 min 0 min 0 W/m 25,1 km/h (4 Bft)
15.08.2015 21:06 17,4 C 15,6 C 95 % 15 lf 1010,6 hPa 0,0 l/m 0 min 0 min 0 W/m 18,8 km/h (3 Bft)
15.08.2015 21:08 17,4 C 15,6 C 95 % 15 lf 1010,6 hPa 0,0 l/m 0 min 0 min 0 W/m 18,8 km/h (3 Bft)
15.08.2015 21:10 17,3 C 15,6 C 95 % 15 lf 1010,6 hPa 0,0 l/m 0 min 0 min 0 W/m 14,6 km/h (3 Bft)
15.08.2015 21:12 17,3 C 15,6 C 95 % 15 lf 1010,6 hPa 0,0 l/m 0 min 0 min 0 W/m 18,8 km/h (3 Bft)
15.08.2015 21:14 17,3 C 15,6 C 95 % 15 lf 1010,7 hPa 0,0 l/m 0 min 0 min 0 W/m 16,7 km/h (3 Bft)
15.08.2015 21:16 17,3 C 15,6 C 95 % 15 lf 1010,7 hPa 0,0 l/m 0 min 0 min 0 W/m 16,7 km/h (3 Bft)
15.08.2015 21:18 17,3 C 15,6 C 95 % 15 lf 1010,7 hPa 0,0 l/m 0 min 0 min 0 W/m 16,7 km/h (3 Bft)
15.08.2015 21:20 17,3 C 15,6 C 95 % 15 lf 1010,8 hPa 0,0 l/m 0 min 0 min 0 W/m 18,8 km/h (3 Bft)
15.08.2015 21:22 17,2 C 15,6 C 95 % 15 lf 1010,7 hPa 0,0 l/m 0 min 2 min 0 W/m 16,7 km/h (3 Bft)
15.08.2015 21:24 17,2 C 15,6 C 95 % 15 lf 1010,8 hPa 0,0 l/m 0 min 2 min 0 W/m 20,9 km/h (4 Bft)
15.08.2015 21:26 17,2 C 15,6 C 95 % 15 lf 1010,8 hPa 0,0 l/m 0 min 2 min 0 W/m 25,1 km/h (4 Bft)
15.08.2015 21:28 17,2 C 15,6 C 95 % 15 lf 1010,8 hPa 0,0 l/m 0 min 2 min 0 W/m 16,7 km/h (3 Bft)
15.08.2015 21:30 17,2 C 15,6 C 95 % 15 lf 1010,9 hPa 0,0 l/m 0 min 2 min 0 W/m 16,7 km/h (3 Bft)
15.08.2015 21:32 17,2 C 15,6 C 95 % 15 lf 1010,8 hPa 0,0 l/m 0 min 2 min 0 W/m 16,7 km/h (3 Bft)
15.08.2015 21:34 17,2 C 15,6 C 95 % 15 lf 1010,9 hPa 0,0 l/m 0 min 2 min 0 W/m 10,5 km/h (2 Bft)
15.08.2015 21:36 17,2 C 15,6 C 95 % 15 lf 1010,9 hPa 0,0 l/m 0 min 2 min 0 W/m 14,6 km/h (3 Bft)
15.08.2015 21:38 17,2 C 15,6 C 95 % 15 lf 1011,0 hPa 0,0 l/m 0 min 2 min 0 W/m 16,7 km/h (3 Bft)
15.08.2015 21:40 17,2 C 15,6 C 95 % 15 lf 1011,1 hPa 0,0 l/m 0 min 2 min 0 W/m 14,6 km/h (3 Bft)
15.08.2015 21:42 17,2 C 15,6 C 95 % 15 lf 1011,0 hPa 0,0 l/m 0 min 2 min 0 W/m 18,8 km/h (3 Bft)
15.08.2015 21:44 17,2 C 15,6 C 95 % 15 lf 1011,0 hPa 0,0 l/m 0 min 0 min 0 W/m 14,6 km/h (3 Bft)
15.08.2015 21:46 17,2 C 15,6 C 95 % 15 lf 1011,1 hPa 0,0 l/m 0 min 2 min 0 W/m 16,7 km/h (3 Bft)
15.08.2015 21:48 17,2 C 15,6 C 95 % 15 lf 1011,1 hPa 0,0 l/m 0 min 2 min 0 W/m 10,5 km/h (2 Bft)
15.08.2015 21:50 17,2 C 15,6 C 95 % 15 lf 1011,1 hPa 0,0 l/m 0 min 2 min 0 W/m 14,6 km/h (3 Bft)
15.08.2015 21:52 17,2 C 15,6 C 95 % 15 lf 1011,1 hPa 0,0 l/m 0 min 2 min 0 W/m 10,5 km/h (2 Bft)
15.08.2015 21:54 17,2 C 15,6 C 95 % 15 lf 1011,2 hPa 0,0 l/m 0 min 2 min 0 W/m 12,6 km/h (3 Bft)
15.08.2015 21:56 17,2 C 15,6 C 95 % 15 lf 1011,2 hPa 0,0 l/m 0 min 2 min 0 W/m 12,6 km/h (3 Bft)
15.08.2015 21:58 17,2 C 15,6 C 95 % 15 lf 1011,2 hPa 0,0 l/m 0 min 2 min 0 W/m 16,7 km/h (3 Bft)
15.08.2015 22:00 17,2 C 15,6 C 95 % 15 lf 1011,2 hPa 0,0 l/m 0 min 2 min 0 W/m 14,6 km/h (3 Bft)
15.08.2015 22:02 17,2 C 15,6 C 95 % 15 lf 1011,2 hPa 0,2 l/m 0 min 2 min 0 W/m 14,6 km/h (3 Bft)
15.08.2015 22:04 17,2 C 15,6 C 95 % 15 lf 1011,2 hPa 0,2 l/m 0 min 2 min 0 W/m 16,7 km/h (3 Bft)
15.08.2015 22:06 17,2 C 15,6 C 95 % 15 lf 1011,3 hPa 0,0 l/m 0 min 2 min 0 W/m 10,5 km/h (2 Bft)
15.08.2015 22:08 17,2 C 15,6 C 95 % 15 lf 1011,2 hPa 0,0 l/m 0 min 2 min 0 W/m 18,8 km/h (3 Bft)
15.08.2015 22:10 17,2 C 15,6 C 95 % 15 lf 1011,2 hPa 0,0 l/m 0 min 2 min 0 W/m 12,6 km/h (3 Bft)
15.08.2015 22:12 17,1 C 15,6 C 95 % 15 lf 1011,3 hPa 0,2 l/m 0 min 2 min 0 W/m 8,4 km/h (2 Bft)
15.08.2015 22:14 17,1 C 15,6 C 95 % 15 lf 1011,3 hPa 0,2 l/m 0 min 2 min 0 W/m 14,6 km/h (3 Bft)
15.08.2015 22:16 17,1 C 15,6 C 95 % 15 lf 1011,2 hPa 0,2 l/m 0 min 2 min 0 W/m 16,7 km/h (3 Bft)
15.08.2015 22:18 17,1 C 15,6 C 95 % 15 lf 1011,3 hPa 0,2 l/m 0 min 2 min 0 W/m 16,7 km/h (3 Bft)
15.08.2015 22:20 17,1 C 15,6 C 95 % 15 lf 1011,3 hPa 0,0 l/m 0 min 2 min 0 W/m 16,7 km/h (3 Bft)
15.08.2015 22:22 17,1 C 15,6 C 95 % 15 lf 1011,3 hPa 0,2 l/m 0 min 2 min 0 W/m 20,9 km/h (4 Bft)
15.08.2015 22:24 17,1 C 15,6 C 95 % 15 lf 1011,3 hPa 0,0 l/m 0 min 2 min 0 W/m 16,7 km/h (3 Bft)
15.08.2015 22:26 17,1 C 15,6 C 95 % 15 lf 1011,3 hPa 0,0 l/m 0 min 2 min 0 W/m 16,7 km/h (3 Bft)
15.08.2015 22:28 17,0 C 15,6 C 95 % 15 lf 1011,3 hPa 0,2 l/m 0 min 2 min 0 W/m 14,6 km/h (3 Bft)
15.08.2015 22:30 17,0 C 15,6 C 95 % 15 lf 1011,3 hPa 0,0 l/m 0 min 2 min 0 W/m 14,6 km/h (3 Bft)
15.08.2015 22:32 17,0 C 15,6 C 95 % 15 lf 1011,3 hPa 0,0 l/m 0 min 2 min 0 W/m 14,6 km/h (3 Bft)
15.08.2015 22:34 17,0 C 15,6 C 95 % 15 lf 1011,3 hPa 0,0 l/m 0 min 2 min 0 W/m 14,6 km/h (3 Bft)
15.08.2015 22:36 16,9 C 15,6 C 95 % 15 lf 1011,3 hPa 0,2 l/m 0 min 2 min 0 W/m 18,8 km/h (3 Bft)
15.08.2015 22:38 16,9 C 15,6 C 96 % 15 lf 1011,4 hPa 0,0 l/m 0 min 2 min 0 W/m 16,7 km/h (3 Bft)
15.08.2015 22:40 16,9 C 15,6 C 96 % 15 lf 1011,4 hPa 0,0 l/m 0 min 2 min 0 W/m 20,9 km/h (4 Bft)
15.08.2015 22:42 16,9 C 15,6 C 96 % 15 lf 1011,4 hPa 0,0 l/m 0 min 2 min 0 W/m 14,6 km/h (3 Bft)
15.08.2015 22:44 16,9 C 15,6 C 96 % 15 lf 1011,4 hPa 0,2 l/m 0 min 2 min 0 W/m 16,7 km/h (3 Bft)
15.08.2015 22:46 16,9 C 15,0 C 96 % 15 lf 1011,4 hPa 0,0 l/m 0 min 2 min 0 W/m 23,0 km/h (4 Bft)
15.08.2015 22:48 16,9 C 15,0 C 96 % 15 lf 1011,4 hPa 0,0 l/m 0 min 2 min 0 W/m 20,9 km/h (4 Bft)
15.08.2015 22:50 16,8 C 15,6 C 96 % 15 lf 1011,4 hPa 0,0 l/m 0 min 2 min 0 W/m 12,6 km/h (3 Bft)
15.08.2015 22:52 16,8 C 15,6 C 96 % 15 lf 1011,4 hPa 0,0 l/m 0 min 2 min 0 W/m 14,6 km/h (3 Bft)
15.08.2015 22:54 16,8 C 15,6 C 96 % 15 lf 1011,5 hPa 0,0 l/m 0 min 2 min 0 W/m 12,6 km/h (3 Bft)
15.08.2015 22:56 16,8 C 15,6 C 96 % 15 lf 1011,6 hPa 0,0 l/m 0 min 2 min 0 W/m 20,9 km/h (4 Bft)
15.08.2015 22:58 16,8 C 15,6 C 96 % 15 lf 1011,5 hPa 0,2 l/m 0 min 2 min 0 W/m 14,6 km/h (3 Bft)
15.08.2015 23:00 16,8 C 15,6 C 96 % 15 lf 1011,6 hPa 0,0 l/m 0 min 2 min 0 W/m 12,6 km/h (3 Bft)
15.08.2015 23:02 16,8 C 15,6 C 96 % 15 lf 1011,6 hPa 0,0 l/m 0 min 2 min 0 W/m 10,5 km/h (2 Bft)
15.08.2015 23:04 16,8 C 15,0 C 96 % 15 lf 1011,6 hPa 0,0 l/m 0 min 2 min 0 W/m 18,8 km/h (3 Bft)
15.08.2015 23:06 16,8 C 15,0 C 96 % 15 lf 1011,6 hPa 0,0 l/m 0 min 2 min 0 W/m 10,5 km/h (2 Bft)
15.08.2015 23:08 16,7 C 15,6 C 96 % 15 lf 1011,6 hPa 0,0 l/m 0 min 2 min 0 W/m 10,5 km/h (2 Bft)
15.08.2015 23:10 16,7 C 15,0 C 96 % 15 lf 1011,6 hPa 0,2 l/m 0 min 2 min 0 W/m 12,6 km/h (3 Bft)
15.08.2015 23:12 16,7 C 15,0 C 96 % 15 lf 1011,6 hPa 0,0 l/m 0 min 2 min 0 W/m 16,7 km/h (3 Bft)
15.08.2015 23:14 16,7 C 15,0 C 96 % 15 lf 1011,6 hPa 0,2 l/m 0 min 2 min 0 W/m 14,6 km/h (3 Bft)
15.08.2015 23:16 16,7 C 15,0 C 96 % 15 lf 1011,6 hPa 0,2 l/m 0 min 2 min 0 W/m 14,6 km/h (3 Bft)
15.08.2015 23:18 16,7 C 15,0 C 96 % 15 lf 1011,7 hPa 0,2 l/m 0 min 2 min 0 W/m 12,6 km/h (3 Bft)
15.08.2015 23:20 16,7 C 15,0 C 96 % 15 lf 1011,6 hPa 0,2 l/m 0 min 2 min 0 W/m 20,9 km/h (4 Bft)
15.08.2015 23:22 16,6 C 15,0 C 96 % 15 lf 1011,6 hPa 0,0 l/m 0 min 2 min 0 W/m 16,7 km/h (3 Bft)
15.08.2015 23:24 16,6 C 15,0 C 96 % 15 lf 1011,6 hPa 0,2 l/m 0 min 2 min 0 W/m 16,7 km/h (3 Bft)
15.08.2015 23:26 16,6 C 15,0 C 96 % 15 lf 1011,6 hPa 0,2 l/m 0 min 2 min 0 W/m 16,7 km/h (3 Bft)
15.08.2015 23:28 16,6 C 15,0 C 96 % 15 lf 1011,7 hPa 0,0 l/m 0 min 2 min 0 W/m 16,7 km/h (3 Bft)
15.08.2015 23:30 16,6 C 15,0 C 96 % 15 lf 1011,7 hPa 0,0 l/m 0 min 2 min 0 W/m 18,8 km/h (3 Bft)
15.08.2015 23:32 16,5 C 15,0 C 96 % 15 lf 1011,7 hPa 0,2 l/m 0 min 2 min 0 W/m 14,6 km/h (3 Bft)
15.08.2015 23:34 16,5 C 15,0 C 96 % 15 lf 1011,6 hPa 0,0 l/m 0 min 2 min 0 W/m 16,7 km/h (3 Bft)
15.08.2015 23:36 16,4 C 15,0 C 96 % 15 lf 1011,7 hPa 0,0 l/m 0 min 2 min 0 W/m 20,9 km/h (4 Bft)
15.08.2015 23:38 16,4 C 15,0 C 96 % 15 lf 1011,6 hPa 0,0 l/m 0 min 2 min 0 W/m 14,6 km/h (3 Bft)
15.08.2015 23:40 16,4 C 15,0 C 96 % 15 lf 1011,7 hPa 0,0 l/m 0 min 2 min 0 W/m 18,8 km/h (3 Bft)
15.08.2015 23:42 16,4 C 15,0 C 96 % 15 lf 1011,7 hPa 0,2 l/m 0 min 2 min 0 W/m 20,9 km/h (4 Bft)
15.08.2015 23:44 16,4 C 15,0 C 96 % 15 lf 1011,8 hPa 0,0 l/m 0 min 2 min 0 W/m 14,6 km/h (3 Bft)
15.08.2015 23:46 16,4 C 15,0 C 96 % 15 lf 1011,8 hPa 0,0 l/m 0 min 2 min 0 W/m 18,8 km/h (3 Bft)
15.08.2015 23:48 16,3 C 15,0 C 96 % 15 lf 1011,8 hPa 0,4 l/m 0 min 2 min 0 W/m 18,8 km/h (3 Bft)
15.08.2015 23:50 16,3 C 15,0 C 96 % 15 lf 1011,8 hPa 0,2 l/m 0 min 2 min 0 W/m 18,8 km/h (3 Bft)
15.08.2015 23:52 16,3 C 15,0 C 96 % 15 lf 1011,8 hPa 0,0 l/m 0 min 2 min 0 W/m 18,8 km/h (3 Bft)
15.08.2015 23:54 16,3 C 15,0 C 96 % 15 lf 1011,7 hPa 0,2 l/m 0 min 2 min 0 W/m 27,2 km/h (4 Bft)
15.08.2015 23:56 16,3 C 15,0 C 96 % 15 lf 1011,7 hPa 0,0 l/m 0 min 2 min 0 W/m 18,8 km/h (3 Bft)
15.08.2015 23:58 16,3 C 15,0 C 97 % 15 lf 1011,7 hPa 0,0 l/m 0 min 2 min 0 W/m 20,9 km/h (4 Bft)
_ Min-Zeit 23:48 05:08 14:42 00:36 01:48 - - - - 00:02
Minimum _ 16,3 C 15,0 C 72 % 0 lf 1005,5 hPa - - - - 0,0 km/h (0 Bft)
_ Max-Zeit 14:50 14:24 23:58 12:18 23:44 23:48 06:54 12:14 14:18 00:34
Maximum _ 23,8 C 23,9 C 97 % 15 lf 1011,8 hPa 0,4 l/m 2 min 2 min 629 W/m 33,5 km/h
SW (5 Bft)
Durchschnitt _ 19,8 C 18,3 C 86 % 4 lf 1007,8 hPa #6,0 l/m #1:36 h #4:27 h 141 W/m 10,7 km/h (2 Bft)
© 2015 W. Hausmann